Time,TemperatureF,DewpointF,PressureIn,WindDirection,WindDirectionDegrees,WindSpeedMPH,WindSpeedGustMPH,Humidity,HourlyPrecipIn,Conditions,Clouds,dailyrainin,SoftwareType,DateUTC
2013-03-11 00:00:00,45.6,24.9,30.23,ESE,112,1.0,1.0,44,0.00,,,0.00,Wunderground v.1.15,2013-03-11 04:00:00,
2013-03-11 00:01:00,45.5,24.8,30.23,SE,128,1.0,12.0,44,0.00,,,0.00,Wunderground v.1.15,2013-03-11 04:01:00,
2013-03-11 00:02:00,45.4,24.7,30.23,ESE,120,0.0,12.0,44,0.00,,,0.00,Wunderground v.1.15,2013-03-11 04:02:00,
2013-03-11 00:05:00,45.4,24.7,30.22,SE,139,1.0,12.0,44,0.00,,,0.00,Wunderground v.1.15,2013-03-11 04:05:00,
2013-03-11 00:06:00,45.4,24.7,30.22,SE,129,1.0,12.0,44,0.00,,,0.00,Wunderground v.1.15,2013-03-11 04:06:00,
2013-03-11 00:07:00,45.4,24.7,30.22,SE,142,1.0,12.0,44,0.00,,,0.00,Wunderground v.1.15,2013-03-11 04:07:00,
2013-03-11 00:08:00,45.3,25.2,30.22,SSE,166,2.0,12.0,45,0.00,,,0.00,Wunderground v.1.15,2013-03-11 04:08:00,
2013-03-11 00:10:00,45.3,25.2,30.22,South,177,2.0,5.0,45,0.00,,,0.00,Wunderground v.1.15,2013-03-11 04:10:00,
2013-03-11 00:11:00,45.3,25.2,30.22,SE,144,2.0,5.0,45,0.00,,,0.00,Wunderground v.1.15,2013-03-11 04:11:00,
2013-03-11 00:15:00,45.2,25.6,30.22,SSE,155,2.0,8.0,46,0.00,,,0.00,Wunderground v.1.15,2013-03-11 04:15:00,
2013-03-11 00:16:00,45.1,25.5,30.22,SE,142,2.0,8.0,46,0.00,,,0.00,Wunderground v.1.15,2013-03-11 04:16:00,
2013-03-11 00:18:00,45.0,25.4,30.22,SE,129,2.0,11.0,46,0.00,,,0.00,Wunderground v.1.15,2013-03-11 04:18:00,
2013-03-11 00:19:00,45.0,25.4,30.22,SE,134,2.0,11.0,46,0.00,,,0.00,Wunderground v.1.15,2013-03-11 04:19:00,
2013-03-11 00:20:00,44.9,25.3,30.21,SE,127,2.0,2.0,46,0.00,,,0.00,Wunderground v.1.15,2013-03-11 04:20:00,
2013-03-11 00:23:00,44.5,25.5,30.21,East,87,1.0,5.0,47,0.00,,,0.00,Wunderground v.1.15,2013-03-11 04:23:00,
2013-03-11 00:24:00,44.5,25.5,30.21,SE,134,1.0,5.0,47,0.00,,,0.00,Wunderground v.1.15,2013-03-11 04:24:00,
2013-03-11 00:25:00,44.4,25.9,30.21,SSE,159,1.0,5.0,48,0.00,,,0.00,Wunderground v.1.15,2013-03-11 04:25:00,
2013-03-11 00:28:00,44.2,25.7,30.21,SSE,152,2.0,8.0,48,0.00,,,0.00,Wunderground v.1.15,2013-03-11 04:28:00,
2013-03-11 00:29:00,44.2,25.2,30.21,SSE,148,2.0,8.0,47,0.00,,,0.00,Wunderground v.1.15,2013-03-11 04:29:00,
2013-03-11 00:31:00,44.1,25.6,30.22,SSW,194,2.0,12.0,48,0.00,,,0.00,Wunderground v.1.15,2013-03-11 04:31:00,
2013-03-11 00:32:00,44.0,25.5,30.21,SSW,194,2.0,12.0,48,0.00,,,0.00,Wunderground v.1.15,2013-03-11 04:32:00,
2013-03-11 00:33:00,43.8,25.9,30.21,SE,142,2.0,12.0,49,0.00,,,0.00,Wunderground v.1.15,2013-03-11 04:33:00,
2013-03-11 00:38:00,43.6,26.2,30.21,SE,132,1.0,12.0,50,0.00,,,0.00,Wunderground v.1.15,2013-03-11 04:38:00,
2013-03-11 00:39:00,43.6,26.2,30.21,SE,132,1.0,12.0,50,0.00,,,0.00,Wunderground v.1.15,2013-03-11 04:39:00,
2013-03-11 00:42:00,43.4,26.0,30.21,SSE,148,1.0,1.0,50,0.00,,,0.00,Wunderground v.1.15,2013-03-11 04:42:00,
2013-03-11 00:44:00,43.3,25.9,30.21,SSE,155,1.0,14.0,50,0.00,,,0.00,Wunderground v.1.15,2013-03-11 04:44:00,
2013-03-11 00:46:00,43.5,26.1,30.21,South,176,1.0,14.0,50,0.00,,,0.00,Wunderground v.1.15,2013-03-11 04:46:00,
2013-03-11 00:51:00,43.7,27.2,30.21,South,175,1.0,4.0,52,0.00,,,0.00,Wunderground v.1.15,2013-03-11 04:51:00,
2013-03-11 00:52:00,43.7,27.2,30.21,SW,223,1.0,4.0,52,0.00,,,0.00,Wunderground v.1.15,2013-03-11 04:52:00,
2013-03-11 00:53:00,43.8,27.3,30.21,SSE,157,1.0,4.0,52,0.00,,,0.00,Wunderground v.1.15,2013-03-11 04:53:00,
2013-03-11 00:57:00,43.6,27.6,30.21,SE,134,2.0,4.0,53,0.00,,,0.00,Wunderground v.1.15,2013-03-11 04:57:00,
2013-03-11 00:59:00,43.4,27.4,30.20,ESE,106,1.0,4.0,53,0.00,,,0.00,Wunderground v.1.15,2013-03-11 04:59:00,
2013-03-11 01:00:00,43.4,27.8,30.20,SSE,165,2.0,4.0,54,0.00,,,0.00,Wunderground v.1.15,2013-03-11 05:00:00,
2013-03-11 01:01:00,43.4,28.3,30.20,ESE,119,2.0,11.0,55,0.00,,,0.00,Wunderground v.1.15,2013-03-11 05:01:00,
2013-03-11 01:05:00,43.2,28.5,30.20,SSW,201,1.0,11.0,56,0.00,,,0.00,Wunderground v.1.15,2013-03-11 05:05:00,
2013-03-11 01:07:00,43.1,28.9,30.20,ESE,121,1.0,11.0,57,0.00,,,0.00,Wunderground v.1.15,2013-03-11 05:07:00,
2013-03-11 01:11:00,43.1,28.9,30.19,SE,124,2.0,9.0,57,0.00,,,0.00,Wunderground v.1.15,2013-03-11 05:11:00,
2013-03-11 01:12:00,43.0,28.8,30.20,SSE,157,2.0,9.0,57,0.00,,,0.00,Wunderground v.1.15,2013-03-11 05:12:00,
2013-03-11 01:13:00,42.9,28.7,30.20,North,5,2.0,9.0,57,0.00,,,0.00,Wunderground v.1.15,2013-03-11 05:13:00,
2013-03-11 01:16:00,42.8,29.0,30.19,SE,132,2.0,9.0,58,0.00,,,0.00,Wunderground v.1.15,2013-03-11 05:16:00,
2013-03-11 01:20:00,42.8,29.0,30.20,South,175,2.0,2.0,58,0.00,,,0.00,Wunderground v.1.15,2013-03-11 05:20:00,
2013-03-11 01:21:00,42.8,29.0,30.20,South,171,2.0,2.0,58,0.00,,,0.00,Wunderground v.1.15,2013-03-11 05:21:00,
2013-03-11 01:23:00,42.7,29.4,30.20,ESE,105,2.0,2.0,59,0.00,,,0.00,Wunderground v.1.15,2013-03-11 05:23:00,
2013-03-11 01:24:00,42.6,29.3,30.20,ESE,105,2.0,2.0,59,0.00,,,0.00,Wunderground v.1.15,2013-03-11 05:24:00,
2013-03-11 01:26:00,42.6,29.7,30.20,SE,130,1.0,2.0,60,0.00,,,0.00,Wunderground v.1.15,2013-03-11 05:26:00,
2013-03-11 01:28:00,42.5,29.6,30.20,West,277,1.0,2.0,60,0.00,,,0.00,Wunderground v.1.15,2013-03-11 05:28:00,
2013-03-11 01:29:00,42.5,29.6,30.20,West,263,1.0,2.0,60,0.00,,,0.00,Wunderground v.1.15,2013-03-11 05:29:00,
2013-03-11 01:30:00,42.4,29.5,30.20,WSW,254,0.0,0.0,60,0.00,,,0.00,Wunderground v.1.15,2013-03-11 05:30:00,
2013-03-11 01:33:00,42.3,29.8,30.21,SW,226,0.0,16.0,61,0.00,,,0.00,Wunderground v.1.15,2013-03-11 05:33:00,
2013-03-11 01:36:00,42.2,29.7,30.21,SSW,198,0.0,16.0,61,0.00,,,0.00,Wunderground v.1.15,2013-03-11 05:36:00,
2013-03-11 01:37:00,42.2,30.1,30.21,SE,144,0.0,16.0,62,0.00,,,0.00,Wunderground v.1.15,2013-03-11 05:37:00,
2013-03-11 01:39:00,42.2,30.5,30.21,SSW,211,0.0,16.0,63,0.00,,,0.00,Wunderground v.1.15,2013-03-11 05:39:00,
2013-03-11 01:42:00,42.3,31.0,30.20,SSE,150,1.0,1.0,64,0.00,,,0.00,Wunderground v.1.15,2013-03-11 05:42:00,
2013-03-11 01:45:00,42.4,31.1,30.20,ESE,122,1.0,1.0,64,0.00,,,0.00,Wunderground v.1.15,2013-03-11 05:45:00,
2013-03-11 01:46:00,42.4,31.1,30.20,SW,229,1.0,1.0,64,0.00,,,0.00,Wunderground v.1.15,2013-03-11 05:46:00,
2013-03-11 01:48:00,42.4,31.5,30.20,East,86,1.0,4.0,65,0.00,,,0.00,Wunderground v.1.15,2013-03-11 05:48:00,
2013-03-11 01:50:00,42.3,31.4,30.20,SE,134,1.0,1.0,65,0.00,,,0.00,Wunderground v.1.15,2013-03-11 05:50:00,
2013-03-11 01:52:00,42.3,31.4,30.20,WSW,240,1.0,1.0,65,0.00,,,0.00,Wunderground v.1.15,2013-03-11 05:52:00,
2013-03-11 01:54:00,42.4,31.8,30.20,South,190,1.0,1.0,66,0.00,,,0.00,Wunderground v.1.15,2013-03-11 05:54:00,
2013-03-11 01:59:00,42.4,32.2,30.21,South,173,1.0,9.0,67,0.00,,,0.00,Wunderground v.1.15,2013-03-11 05:59:00,
2013-03-11 02:00:00,42.4,32.2,30.21,ESE,114,1.0,1.0,67,0.00,,,0.00,Wunderground v.1.15,2013-03-11 06:00:00,
2013-03-11 02:01:00,42.4,32.2,30.21,ENE,57,1.0,2.0,67,0.00,,,0.00,Wunderground v.1.15,2013-03-11 06:01:00,
2013-03-11 02:03:00,42.4,32.6,30.20,East,82,1.0,4.0,68,0.00,,,0.00,Wunderground v.1.15,2013-03-11 06:03:00,
2013-03-11 02:05:00,42.4,32.6,30.20,East,87,1.0,4.0,68,0.00,,,0.00,Wunderground v.1.15,2013-03-11 06:05:00,
2013-03-11 02:08:00,42.3,32.8,30.20,SE,142,1.0,4.0,69,0.00,,,0.00,Wunderground v.1.15,2013-03-11 06:08:00,
2013-03-11 02:09:00,42.2,32.8,30.20,WSW,242,1.0,4.0,69,0.00,,,0.00,Wunderground v.1.15,2013-03-11 06:09:00,
2013-03-11 02:15:00,42.0,32.6,30.19,SSE,162,2.0,2.0,69,0.00,,,0.00,Wunderground v.1.15,2013-03-11 06:15:00,
2013-03-11 02:16:00,41.9,32.5,30.19,SSE,157,2.0,6.0,69,0.00,,,0.00,Wunderground v.1.15,2013-03-11 06:16:00,
2013-03-11 02:17:00,41.8,32.7,30.18,ESE,109,2.0,7.0,70,0.00,,,0.00,Wunderground v.1.15,2013-03-11 06:17:00,
2013-03-11 02:20:00,41.6,32.5,30.18,SE,132,3.0,5.0,70,0.00,,,0.00,Wunderground v.1.15,2013-03-11 06:20:00,
2013-03-11 02:21:00,41.6,32.5,30.18,ESE,122,3.0,5.0,70,0.00,,,0.00,Wunderground v.1.15,2013-03-11 06:21:00,
2013-03-11 02:22:00,41.4,32.3,30.18,SSE,153,3.0,5.0,70,0.00,,,0.00,Wunderground v.1.15,2013-03-11 06:22:00,
2013-03-11 02:26:00,41.0,32.3,30.19,ESE,110,4.0,5.0,71,0.00,,,0.00,Wunderground v.1.15,2013-03-11 06:26:00,
2013-03-11 02:27:00,40.9,32.2,30.19,East,101,4.0,5.0,71,0.00,,,0.00,Wunderground v.1.15,2013-03-11 06:27:00,
2013-03-11 02:28:00,40.9,32.6,30.19,ESE,102,4.0,8.0,72,0.00,,,0.00,Wunderground v.1.15,2013-03-11 06:28:00,
2013-03-11 02:30:00,40.7,32.4,30.19,ESE,110,3.0,5.0,72,0.00,,,0.00,Wunderground v.1.15,2013-03-11 06:30:00,
2013-03-11 02:33:00,40.7,32.4,30.18,SSE,150,4.0,9.0,72,0.00,,,0.00,Wunderground v.1.15,2013-03-11 06:33:00,
2013-03-11 02:35:00,40.6,32.3,30.18,ESE,114,4.0,9.0,72,0.00,,,0.00,Wunderground v.1.15,2013-03-11 06:35:00,
2013-03-11 02:37:00,40.6,32.6,30.18,SE,136,4.0,9.0,73,0.00,,,0.00,Wunderground v.1.15,2013-03-11 06:37:00,
2013-03-11 02:39:00,40.5,32.5,30.18,SSE,147,4.0,9.0,73,0.00,,,0.00,Wunderground v.1.15,2013-03-11 06:39:00,
2013-03-11 02:41:00,40.5,32.5,30.18,SE,125,3.0,4.0,73,0.00,,,0.00,Wunderground v.1.15,2013-03-11 06:41:00,
2013-03-11 02:43:00,40.4,32.8,30.18,ESE,103,3.0,5.0,74,0.00,,,0.00,Wunderground v.1.15,2013-03-11 06:43:00,
2013-03-11 02:45:00,40.3,32.7,30.18,South,179,2.0,5.0,74,0.00,,,0.00,Wunderground v.1.15,2013-03-11 06:45:00,
2013-03-11 02:46:00,40.3,32.7,30.18,SSE,148,2.0,5.0,74,0.00,,,0.00,Wunderground v.1.15,2013-03-11 06:46:00,
2013-03-11 02:48:00,40.4,32.8,30.18,ESE,120,2.0,9.0,74,0.00,,,0.00,Wunderground v.1.15,2013-03-11 06:48:00,
2013-03-11 02:50:00,40.5,32.9,30.18,SE,133,2.0,2.0,74,0.00,,,0.00,Wunderground v.1.15,2013-03-11 06:50:00,
2013-03-11 02:51:00,40.5,32.9,30.18,SE,141,2.0,2.0,74,0.00,,,0.00,Wunderground v.1.15,2013-03-11 06:51:00,
2013-03-11 02:52:00,40.5,32.9,30.18,SE,130,2.0,2.0,74,0.00,,,0.00,Wunderground v.1.15,2013-03-11 06:52:00,
2013-03-11 02:56:00,40.4,32.8,30.18,SSE,160,2.0,2.0,74,0.00,,,0.00,Wunderground v.1.15,2013-03-11 06:56:00,
2013-03-11 02:57:00,40.4,33.1,30.18,SSE,167,2.0,2.0,75,0.00,,,0.00,Wunderground v.1.15,2013-03-11 06:57:00,
2013-03-11 02:58:00,40.4,33.1,30.18,ESE,112,1.0,2.0,75,0.00,,,0.00,Wunderground v.1.15,2013-03-11 06:58:00,
2013-03-11 02:59:00,40.4,33.1,30.18,SSW,194,1.0,2.0,75,0.00,,,0.00,Wunderground v.1.15,2013-03-11 06:59:00,
2013-03-11 03:03:00,40.5,33.2,30.18,ESE,106,1.0,12.0,75,0.00,,,0.00,Wunderground v.1.15,2013-03-11 07:03:00,
2013-03-11 03:04:00,40.5,33.2,30.18,SSE,157,1.0,12.0,75,0.00,,,0.00,Wunderground v.1.15,2013-03-11 07:04:00,
2013-03-11 03:07:00,40.6,33.3,30.17,SSE,157,1.0,12.0,75,0.00,,,0.00,Wunderground v.1.15,2013-03-11 07:07:00,
2013-03-11 03:10:00,40.8,33.5,30.17,SE,125,1.0,1.0,75,0.00,,,0.00,Wunderground v.1.15,2013-03-11 07:10:00,
2013-03-11 03:11:00,40.9,33.6,30.18,East,98,1.0,6.0,75,0.00,,,0.00,Wunderground v.1.15,2013-03-11 07:11:00,
2013-03-11 03:12:00,41.0,33.7,30.17,South,170,1.0,6.0,75,0.00,,,0.00,Wunderground v.1.15,2013-03-11 07:12:00,
2013-03-11 03:16:00,41.7,34.4,30.18,SE,134,1.0,7.0,75,0.00,,,0.00,Wunderground v.1.15,2013-03-11 07:16:00,
2013-03-11 03:18:00,42.0,34.6,30.17,SE,128,2.0,7.0,75,0.00,,,0.00,Wunderground v.1.15,2013-03-11 07:18:00,
2013-03-11 03:22:00,42.2,34.8,30.17,South,182,2.0,2.0,75,0.00,,,0.00,Wunderground v.1.15,2013-03-11 07:22:00,
2013-03-11 03:23:00,42.3,34.9,30.17,SSW,196,2.0,2.0,75,0.00,,,0.00,Wunderground v.1.15,2013-03-11 07:23:00,
2013-03-11 03:24:00,42.2,34.8,30.17,ESE,106,2.0,5.0,75,0.00,,,0.00,Wunderground v.1.15,2013-03-11 07:24:00,
2013-03-11 03:25:00,42.2,34.8,30.17,SSW,194,2.0,5.0,75,0.00,,,0.00,Wunderground v.1.15,2013-03-11 07:25:00,
2013-03-11 03:28:00,42.1,35.1,30.17,SE,145,2.0,5.0,76,0.00,,,0.00,Wunderground v.1.15,2013-03-11 07:28:00,
2013-03-11 03:30:00,42.0,35.0,30.17,SSE,153,1.0,1.0,76,0.00,,,0.00,Wunderground v.1.15,2013-03-11 07:30:00,
2013-03-11 03:31:00,42.0,35.0,30.17,South,177,1.0,13.0,76,0.00,,,0.00,Wunderground v.1.15,2013-03-11 07:31:00,
2013-03-11 03:33:00,41.9,34.9,30.17,ESE,109,1.0,13.0,76,0.00,,,0.00,Wunderground v.1.15,2013-03-11 07:33:00,
2013-03-11 03:34:00,41.9,35.2,30.17,South,173,1.0,13.0,77,0.00,,,0.00,Wunderground v.1.15,2013-03-11 07:34:00,
2013-03-11 03:38:00,41.9,35.2,30.17,SSE,166,2.0,13.0,77,0.00,,,0.00,Wunderground v.1.15,2013-03-11 07:38:00,
2013-03-11 03:39:00,42.0,35.3,30.17,ESE,117,2.0,13.0,77,0.00,,,0.00,Wunderground v.1.15,2013-03-11 07:39:00,
2013-03-11 03:42:00,41.9,35.2,30.16,SSE,165,3.0,4.0,77,0.00,,,0.00,Wunderground v.1.15,2013-03-11 07:42:00,
2013-03-11 03:43:00,41.8,35.1,30.17,SE,133,3.0,6.0,77,0.00,,,0.00,Wunderground v.1.15,2013-03-11 07:43:00,
2013-03-11 03:47:00,41.5,34.8,30.16,South,186,3.0,10.0,77,0.00,,,0.00,Wunderground v.1.15,2013-03-11 07:47:00,
2013-03-11 03:48:00,41.3,34.6,30.17,SSE,157,2.0,10.0,77,0.00,,,0.00,Wunderground v.1.15,2013-03-11 07:48:00,
2013-03-11 03:49:00,41.3,35.0,30.17,SE,132,2.0,10.0,78,0.00,,,0.00,Wunderground v.1.15,2013-03-11 07:49:00,
2013-03-11 03:53:00,41.0,34.7,30.16,SSE,159,1.0,4.0,78,0.00,,,0.00,Wunderground v.1.15,2013-03-11 07:53:00,
2013-03-11 03:54:00,40.9,34.6,30.16,ESE,117,1.0,4.0,78,0.00,,,0.00,Wunderground v.1.15,2013-03-11 07:54:00,
2013-03-11 03:58:00,40.9,34.6,30.16,South,188,1.0,11.0,78,0.00,,,0.00,Wunderground v.1.15,2013-03-11 07:58:00,
2013-03-11 04:00:00,41.0,34.7,30.16,SW,223,1.0,1.0,78,0.00,,,0.00,Wunderground v.1.15,2013-03-11 08:00:00,
2013-03-11 04:01:00,41.0,34.3,30.16,SW,221,1.0,8.0,77,0.00,,,0.00,Wunderground v.1.15,2013-03-11 08:01:00,
2013-03-11 04:03:00,41.1,34.4,30.16,East,98,1.0,8.0,77,0.00,,,0.00,Wunderground v.1.15,2013-03-11 08:03:00,
2013-03-11 04:06:00,41.2,34.5,30.16,South,184,2.0,8.0,77,0.00,,,0.00,Wunderground v.1.15,2013-03-11 08:06:00,
2013-03-11 04:07:00,41.2,34.5,30.16,SE,146,2.0,8.0,77,0.00,,,0.00,Wunderground v.1.15,2013-03-11 08:07:00,
2013-03-11 04:08:00,41.2,34.5,30.16,South,180,2.0,8.0,77,0.00,,,0.00,Wunderground v.1.15,2013-03-11 08:08:00,
2013-03-11 04:10:00,41.2,34.5,30.16,ESE,112,2.0,2.0,77,0.00,,,0.00,Wunderground v.1.15,2013-03-11 08:10:00,
2013-03-11 04:11:00,41.1,34.4,30.16,East,92,2.0,6.0,77,0.00,,,0.00,Wunderground v.1.15,2013-03-11 08:11:00,
2013-03-11 04:13:00,41.1,34.8,30.15,East,83,2.0,6.0,78,0.00,,,0.00,Wunderground v.1.15,2013-03-11 08:13:00,
2013-03-11 04:17:00,41.0,36.2,30.15,SSE,156,2.0,8.0,83,0.00,,,0.00,Wunderground v.1.15,2013-03-11 08:17:00,
2013-03-11 04:19:00,40.9,34.9,30.15,SSE,152,2.0,8.0,79,0.00,,,0.00,Wunderground v.1.15,2013-03-11 08:19:00,
2013-03-11 04:20:00,40.9,34.9,30.15,ESE,123,2.0,2.0,79,0.00,,,0.00,Wunderground v.1.15,2013-03-11 08:20:00,
2013-03-11 04:25:00,40.7,35.3,30.15,SSE,150,2.0,8.0,81,0.00,,,0.00,Wunderground v.1.15,2013-03-11 08:25:00,
2013-03-11 04:26:00,40.6,35.2,30.15,SSE,157,2.0,8.0,81,0.00,,,0.00,Wunderground v.1.15,2013-03-11 08:26:00,
2013-03-11 04:28:00,40.6,35.2,30.15,SE,145,1.0,8.0,81,0.00,,,0.00,Wunderground v.1.15,2013-03-11 08:28:00,
2013-03-11 04:31:00,40.4,35.3,30.14,SE,136,1.0,13.0,82,0.00,,,0.00,Wunderground v.1.15,2013-03-11 08:31:00,
2013-03-11 04:32:00,40.3,35.2,30.14,SE,134,1.0,13.0,82,0.00,,,0.00,Wunderground v.1.15,2013-03-11 08:32:00,
2013-03-11 04:36:00,40.0,35.3,30.15,SE,126,1.0,13.0,83,0.00,,,0.00,Wunderground v.1.15,2013-03-11 08:36:00,
2013-03-11 04:37:00,39.9,35.5,30.14,ESE,111,1.0,13.0,84,0.00,,,0.00,Wunderground v.1.15,2013-03-11 08:37:00,
2013-03-11 04:40:00,39.7,35.3,30.15,ESE,106,2.0,5.0,84,0.00,,,0.00,Wunderground v.1.15,2013-03-11 08:40:00,
2013-03-11 04:41:00,39.6,35.2,30.15,ESE,103,2.0,5.0,84,0.00,,,0.00,Wunderground v.1.15,2013-03-11 08:41:00,
2013-03-11 04:42:00,39.5,35.4,30.14,ESE,122,2.0,5.0,85,0.00,,,0.00,Wunderground v.1.15,2013-03-11 08:42:00,
2013-03-11 04:45:00,39.3,35.2,30.14,SSE,157,2.0,5.0,85,0.00,,,0.00,Wunderground v.1.15,2013-03-11 08:45:00,
2013-03-11 04:48:00,39.2,35.4,30.14,SE,128,3.0,5.0,86,0.00,,,0.00,Wunderground v.1.15,2013-03-11 08:48:00,
2013-03-11 04:49:00,39.2,35.4,30.14,ESE,110,3.0,5.0,86,0.00,,,0.00,Wunderground v.1.15,2013-03-11 08:49:00,
2013-03-11 04:50:00,39.2,35.4,30.14,ESE,118,3.0,8.0,86,0.00,,,0.00,Wunderground v.1.15,2013-03-11 08:50:00,
2013-03-11 04:53:00,39.1,35.6,30.14,SE,129,2.0,8.0,87,0.00,,,0.00,Wunderground v.1.15,2013-03-11 08:53:00,
2013-03-11 04:54:00,39.1,35.6,30.14,SE,144,2.0,8.0,87,0.00,,,0.00,Wunderground v.1.15,2013-03-11 08:54:00,
2013-03-11 04:55:00,39.1,35.6,30.14,ESE,119,2.0,8.0,87,0.00,,,0.00,Wunderground v.1.15,2013-03-11 08:55:00,
2013-03-11 04:57:00,39.0,35.5,30.14,SE,141,2.0,8.0,87,0.00,,,0.00,Wunderground v.1.15,2013-03-11 08:57:00,
2013-03-11 04:58:00,38.9,35.4,30.14,SE,126,2.0,8.0,87,0.00,,,0.00,Wunderground v.1.15,2013-03-11 08:58:00,
2013-03-11 05:01:00,38.7,35.5,30.14,SE,146,2.0,11.0,88,0.00,,,0.00,Wunderground v.1.15,2013-03-11 09:01:00,
2013-03-11 05:02:00,38.7,35.5,30.14,SE,142,2.0,11.0,88,0.00,,,0.00,Wunderground v.1.15,2013-03-11 09:02:00,
2013-03-11 05:03:00,38.6,35.4,30.14,SE,129,1.0,11.0,88,0.00,,,0.00,Wunderground v.1.15,2013-03-11 09:03:00,
2013-03-11 05:07:00,38.5,35.5,30.14,SE,128,2.0,11.0,89,0.00,,,0.00,Wunderground v.1.15,2013-03-11 09:07:00,
2013-03-11 05:08:00,38.4,35.4,30.14,SE,132,2.0,11.0,89,0.00,,,0.00,Wunderground v.1.15,2013-03-11 09:08:00,
2013-03-11 05:09:00,38.4,35.4,30.14,SE,140,2.0,11.0,89,0.00,,,0.00,Wunderground v.1.15,2013-03-11 09:09:00,
2013-03-11 05:10:00,38.4,35.4,30.14,ESE,113,2.0,2.0,89,0.00,,,0.00,Wunderground v.1.15,2013-03-11 09:10:00,
2013-03-11 05:15:00,38.3,35.6,30.13,SSE,153,3.0,5.0,90,0.00,,,0.00,Wunderground v.1.15,2013-03-11 09:15:00,
2013-03-11 05:16:00,38.2,35.5,30.13,SE,132,3.0,5.0,90,0.00,,,0.00,Wunderground v.1.15,2013-03-11 09:16:00,
2013-03-11 05:17:00,38.2,35.5,30.13,SE,133,3.0,7.0,90,0.00,,,0.00,Wunderground v.1.15,2013-03-11 09:17:00,
2013-03-11 05:20:00,38.1,35.4,30.13,ESE,115,2.0,4.0,90,0.00,,,0.00,Wunderground v.1.15,2013-03-11 09:20:00,
2013-03-11 05:23:00,38.0,35.3,30.13,SSE,155,2.0,6.0,90,0.00,,,0.00,Wunderground v.1.15,2013-03-11 09:23:00,
2013-03-11 05:25:00,38.0,35.3,30.13,ESE,111,3.0,6.0,90,0.00,,,0.00,Wunderground v.1.15,2013-03-11 09:25:00,
2013-03-11 05:28:00,37.9,35.5,30.13,South,183,3.0,6.0,91,0.00,,,0.00,Wunderground v.1.15,2013-03-11 09:28:00,
2013-03-11 05:30:00,37.9,35.5,30.14,South,173,2.0,2.0,91,0.00,,,0.00,Wunderground v.1.15,2013-03-11 09:30:00,
2013-03-11 05:31:00,37.8,35.4,30.13,SSE,168,2.0,8.0,91,0.00,,,0.00,Wunderground v.1.15,2013-03-11 09:31:00,
2013-03-11 05:32:00,37.8,35.4,30.14,SSE,157,2.0,8.0,91,0.00,,,0.00,Wunderground v.1.15,2013-03-11 09:32:00,
2013-03-11 05:38:00,37.8,35.7,30.14,SE,137,1.0,8.0,92,0.00,,,0.00,Wunderground v.1.15,2013-03-11 09:38:00,
2013-03-11 05:39:00,37.8,35.7,30.14,SE,137,1.0,8.0,92,0.00,,,0.00,Wunderground v.1.15,2013-03-11 09:39:00,
2013-03-11 05:44:00,37.8,35.7,30.13,SSE,148,2.0,4.0,92,0.00,,,0.00,Wunderground v.1.15,2013-03-11 09:44:00,
2013-03-11 05:46:00,37.8,35.7,30.13,SE,142,1.0,4.0,92,0.00,,,0.00,Wunderground v.1.15,2013-03-11 09:46:00,
2013-03-11 05:47:00,37.8,35.7,30.13,SE,146,1.0,5.0,92,0.00,,,0.00,Wunderground v.1.15,2013-03-11 09:47:00,
2013-03-11 05:48:00,37.8,35.7,30.13,SE,142,2.0,5.0,92,0.00,,,0.00,Wunderground v.1.15,2013-03-11 09:48:00,
2013-03-11 05:53:00,37.9,35.8,30.13,ESE,121,3.0,11.0,92,0.00,,,0.00,Wunderground v.1.15,2013-03-11 09:53:00,
2013-03-11 05:55:00,37.9,35.8,30.13,SE,138,3.0,11.0,92,0.00,,,0.00,Wunderground v.1.15,2013-03-11 09:55:00,
2013-03-11 05:58:00,38.0,35.9,30.13,SSE,148,4.0,11.0,92,0.00,,,0.00,Wunderground v.1.15,2013-03-11 09:58:00,
2013-03-11 05:59:00,37.9,36.1,30.13,ESE,123,4.0,11.0,93,0.00,,,0.00,Wunderground v.1.15,2013-03-11 09:59:00,
2013-03-11 06:00:00,37.9,36.1,30.13,SSE,148,3.0,3.0,93,0.00,,,0.00,Wunderground v.1.15,2013-03-11 10:00:00,
2013-03-11 06:01:00,37.9,36.1,30.13,ESE,119,3.0,13.0,93,0.00,,,0.00,Wunderground v.1.15,2013-03-11 10:01:00,
2013-03-11 06:04:00,37.9,36.1,30.13,SE,134,2.0,13.0,93,0.00,,,0.00,Wunderground v.1.15,2013-03-11 10:04:00,
2013-03-11 06:06:00,37.8,36.0,30.14,SE,132,2.0,13.0,93,0.00,,,0.00,Wunderground v.1.15,2013-03-11 10:06:00,
2013-03-11 06:07:00,37.8,36.0,30.13,SE,132,1.0,13.0,93,0.00,,,0.00,Wunderground v.1.15,2013-03-11 10:07:00,
2013-03-11 06:08:00,37.8,36.0,30.14,SE,132,1.0,13.0,93,0.00,,,0.00,Wunderground v.1.15,2013-03-11 10:08:00,
2013-03-11 06:12:00,37.9,36.1,30.14,SSE,149,1.0,4.0,93,0.00,,,0.00,Wunderground v.1.15,2013-03-11 10:12:00,
2013-03-11 06:14:00,38.0,36.2,30.14,SE,145,2.0,4.0,93,0.00,,,0.00,Wunderground v.1.15,2013-03-11 10:14:00,
2013-03-11 06:16:00,38.0,36.2,30.13,SE,132,2.0,4.0,93,0.00,,,0.00,Wunderground v.1.15,2013-03-11 10:16:00,
2013-03-11 06:18:00,38.1,36.3,30.13,ESE,111,2.0,4.0,93,0.00,,,0.00,Wunderground v.1.15,2013-03-11 10:18:00,
2013-03-11 06:20:00,38.0,36.2,30.13,SE,132,2.0,2.0,93,0.00,,,0.00,Wunderground v.1.15,2013-03-11 10:20:00,
2013-03-11 06:21:00,38.0,36.2,30.13,ESE,121,2.0,2.0,93,0.00,,,0.00,Wunderground v.1.15,2013-03-11 10:21:00,
2013-03-11 06:25:00,38.0,36.2,30.13,SSE,149,1.0,4.0,93,0.00,,,0.00,Wunderground v.1.15,2013-03-11 10:25:00,
2013-03-11 06:27:00,37.9,36.1,30.14,South,191,1.0,4.0,93,0.00,,,0.00,Wunderground v.1.15,2013-03-11 10:27:00,
2013-03-11 06:28:00,37.9,36.1,30.14,South,182,0.0,4.0,93,0.00,,,0.00,Wunderground v.1.15,2013-03-11 10:28:00,
2013-03-11 06:32:00,37.9,36.1,30.14,SSW,195,1.0,12.0,93,0.00,,,0.00,Wunderground v.1.15,2013-03-11 10:32:00,
2013-03-11 06:34:00,37.9,36.1,30.14,SE,145,1.0,12.0,93,0.00,,,0.00,Wunderground v.1.15,2013-03-11 10:34:00,
2013-03-11 06:35:00,37.9,36.1,30.14,SE,140,1.0,12.0,93,0.00,,,0.00,Wunderground v.1.15,2013-03-11 10:35:00,
2013-03-11 06:38:00,38.0,36.2,30.14,SSE,150,1.0,12.0,93,0.00,,,0.00,Wunderground v.1.15,2013-03-11 10:38:00,
2013-03-11 06:39:00,37.9,36.1,30.14,SSE,150,1.0,12.0,93,0.00,,,0.00,Wunderground v.1.15,2013-03-11 10:39:00,
2013-03-11 06:40:00,37.9,36.1,30.14,SSE,155,1.0,1.0,93,0.00,,,0.00,Wunderground v.1.15,2013-03-11 10:40:00,
2013-03-11 06:43:00,37.8,36.0,30.14,SSE,162,2.0,5.0,93,0.00,,,0.00,Wunderground v.1.15,2013-03-11 10:43:00,
2013-03-11 06:45:00,37.8,36.0,30.14,SE,134,2.0,11.0,93,0.00,,,0.00,Wunderground v.1.15,2013-03-11 10:45:00,
2013-03-11 06:47:00,37.9,36.1,30.14,SE,146,2.0,11.0,93,0.00,,,0.00,Wunderground v.1.15,2013-03-11 10:47:00,
2013-03-11 06:49:00,37.8,36.0,30.14,SSE,147,1.0,11.0,93,0.00,,,0.00,Wunderground v.1.15,2013-03-11 10:49:00,
2013-03-11 06:53:00,37.8,36.0,30.14,SE,134,1.0,6.0,93,0.00,,,0.00,Wunderground v.1.15,2013-03-11 10:53:00,
2013-03-11 06:54:00,37.8,36.0,30.14,ESE,119,1.0,6.0,93,0.00,,,0.00,Wunderground v.1.15,2013-03-11 10:54:00,
2013-03-11 06:55:00,37.8,36.0,30.14,ESE,106,1.0,6.0,93,0.00,,,0.00,Wunderground v.1.15,2013-03-11 10:55:00,
2013-03-11 07:00:00,37.8,36.0,30.14,SSE,159,1.0,1.0,93,0.00,,,0.00,Wunderground v.1.15,2013-03-11 11:00:00,
2013-03-11 07:02:00,37.8,36.0,30.14,SSE,163,1.0,11.0,93,0.00,,,0.00,Wunderground v.1.15,2013-03-11 11:02:00,
2013-03-11 07:03:00,37.8,36.0,30.14,South,187,1.0,11.0,93,0.00,,,0.00,Wunderground v.1.15,2013-03-11 11:03:00,
2013-03-11 07:05:00,37.8,36.0,30.14,SE,135,1.0,11.0,93,0.00,,,0.00,Wunderground v.1.15,2013-03-11 11:05:00,
2013-03-11 07:06:00,37.8,36.0,30.14,SE,128,1.0,11.0,93,0.00,,,0.00,Wunderground v.1.15,2013-03-11 11:06:00,
2013-03-11 07:08:00,37.8,36.0,30.14,SE,136,1.0,11.0,93,0.00,,,0.00,Wunderground v.1.15,2013-03-11 11:08:00,
2013-03-11 07:12:00,37.9,36.1,30.13,East,94,2.0,8.0,93,0.00,,,0.00,Wunderground v.1.15,2013-03-11 11:12:00,
2013-03-11 07:14:00,37.9,36.1,30.13,SE,143,2.0,8.0,93,0.00,,,0.00,Wunderground v.1.15,2013-03-11 11:14:00,
2013-03-11 07:15:00,37.9,36.1,30.13,SE,144,2.0,8.0,93,0.00,,,0.00,Wunderground v.1.15,2013-03-11 11:15:00,
2013-03-11 07:19:00,38.0,36.2,30.13,SSE,163,3.0,8.0,93,0.00,,,0.00,Wunderground v.1.15,2013-03-11 11:19:00,
2013-03-11 07:20:00,38.0,36.2,30.13,SE,140,2.0,2.0,93,0.00,,,0.00,Wunderground v.1.15,2013-03-11 11:20:00,
2013-03-11 07:22:00,38.0,36.2,30.12,SE,146,2.0,5.0,93,0.00,,,0.00,Wunderground v.1.15,2013-03-11 11:22:00,
2013-03-11 07:24:00,38.0,36.2,30.13,SSE,155,3.0,6.0,93,0.00,,,0.00,Wunderground v.1.15,2013-03-11 11:24:00,
2013-03-11 07:27:00,38.1,36.3,30.13,SE,131,2.0,6.0,93,0.00,,,0.00,Wunderground v.1.15,2013-03-11 11:27:00,
2013-03-11 07:32:00,38.2,36.4,30.14,SE,145,2.0,11.0,93,0.00,,,0.00,Wunderground v.1.15,2013-03-11 11:32:00,
2013-03-11 07:34:00,38.2,36.4,30.14,West,265,1.0,11.0,93,0.00,,,0.00,Wunderground v.1.15,2013-03-11 11:34:00,
2013-03-11 07:35:00,38.2,36.4,30.14,SSE,159,1.0,11.0,93,0.00,,,0.00,Wunderground v.1.15,2013-03-11 11:35:00,
2013-03-11 07:37:00,38.3,36.5,30.13,South,169,1.0,11.0,93,0.00,,,0.00,Wunderground v.1.15,2013-03-11 11:37:00,
2013-03-11 07:39:00,38.4,36.6,30.14,West,275,1.0,11.0,93,0.00,,,0.00,Wunderground v.1.15,2013-03-11 11:39:00,
2013-03-11 07:41:00,38.5,36.7,30.14,South,186,1.0,5.0,93,0.00,,,0.00,Wunderground v.1.15,2013-03-11 11:41:00,
2013-03-11 07:42:00,38.5,36.7,30.14,South,173,1.0,5.0,93,0.00,,,0.00,Wunderground v.1.15,2013-03-11 11:42:00,
2013-03-11 07:43:00,38.6,36.8,30.14,East,96,1.0,5.0,93,0.00,,,0.00,Wunderground v.1.15,2013-03-11 11:43:00,
2013-03-11 07:45:00,38.6,36.8,30.13,SSE,152,1.0,5.0,93,0.00,,,0.00,Wunderground v.1.15,2013-03-11 11:45:00,
2013-03-11 07:48:00,38.6,36.8,30.14,South,169,1.0,5.0,93,0.00,,,0.00,Wunderground v.1.15,2013-03-11 11:48:00,
2013-03-11 07:49:00,38.6,36.8,30.14,South,173,1.0,5.0,93,0.00,,,0.00,Wunderground v.1.15,2013-03-11 11:49:00,
2013-03-11 07:50:00,38.6,36.8,30.14,South,176,1.0,1.0,93,0.00,,,0.00,Wunderground v.1.15,2013-03-11 11:50:00,
2013-03-11 07:52:00,38.6,36.8,30.14,SW,214,0.0,1.0,93,0.00,,,0.00,Wunderground v.1.15,2013-03-11 11:52:00,
2013-03-11 07:56:00,38.6,36.8,30.14,SE,126,0.0,1.0,93,0.00,,,0.00,Wunderground v.1.15,2013-03-11 11:56:00,
2013-03-11 07:58:00,38.6,36.8,30.14,SE,126,0.0,1.0,93,0.00,,,0.00,Wunderground v.1.15,2013-03-11 11:58:00,
2013-03-11 08:02:00,38.6,36.8,30.14,WSW,244,0.0,13.0,93,0.00,,,0.00,Wunderground v.1.15,2013-03-11 12:02:00,
2013-03-11 08:03:00,38.6,36.8,30.14,WSW,244,0.0,13.0,93,0.00,,,0.00,Wunderground v.1.15,2013-03-11 12:03:00,
2013-03-11 08:04:00,38.6,36.8,30.14,WSW,244,0.0,13.0,93,0.00,,,0.00,Wunderground v.1.15,2013-03-11 12:04:00,
2013-03-11 08:09:00,38.7,36.9,30.14,WSW,240,0.0,13.0,93,0.00,,,0.00,Wunderground v.1.15,2013-03-11 12:09:00,
2013-03-11 08:12:00,38.7,36.9,30.14,SW,219,0.0,3.0,93,0.00,,,0.00,Wunderground v.1.15,2013-03-11 12:12:00,
2013-03-11 08:16:00,38.8,36.9,30.13,SSE,157,0.0,3.0,93,0.00,,,0.00,Wunderground v.1.15,2013-03-11 12:16:00,
2013-03-11 08:17:00,38.9,37.0,30.13,SSE,157,0.0,3.0,93,0.00,,,0.00,Wunderground v.1.15,2013-03-11 12:17:00,
2013-03-11 08:20:00,38.9,37.0,30.13,SSE,164,0.0,2.0,93,0.00,,,0.00,Wunderground v.1.15,2013-03-11 12:20:00,
2013-03-11 08:22:00,38.9,37.0,30.13,South,183,1.0,2.0,93,0.00,,,0.00,Wunderground v.1.15,2013-03-11 12:22:00,
2013-03-11 08:24:00,39.0,37.1,30.14,South,183,1.0,2.0,93,0.00,,,0.00,Wunderground v.1.15,2013-03-11 12:24:00,
2013-03-11 08:26:00,39.0,37.1,30.14,South,173,1.0,2.0,93,0.00,,,0.00,Wunderground v.1.15,2013-03-11 12:26:00,
2013-03-11 08:28:00,39.0,37.1,30.14,South,173,1.0,2.0,93,0.00,,,0.00,Wunderground v.1.15,2013-03-11 12:28:00,
2013-03-11 08:29:00,39.0,37.1,30.14,South,173,1.0,2.0,93,0.00,,,0.00,Wunderground v.1.15,2013-03-11 12:29:00,
2013-03-11 08:32:00,39.0,37.1,30.14,South,173,0.0,7.0,93,0.00,,,0.00,Wunderground v.1.15,2013-03-11 12:32:00,
2013-03-11 08:33:00,39.0,37.1,30.15,SSE,153,0.0,7.0,93,0.00,,,0.00,Wunderground v.1.15,2013-03-11 12:33:00,
2013-03-11 08:35:00,39.1,37.2,30.15,West,267,0.0,7.0,93,0.00,,,0.00,Wunderground v.1.15,2013-03-11 12:35:00,
2013-03-11 08:37:00,39.1,37.2,30.15,East,101,0.0,7.0,93,0.00,,,0.00,Wunderground v.1.15,2013-03-11 12:37:00,
2013-03-11 08:39:00,39.1,37.2,30.15,NW,306,0.0,7.0,93,0.00,,,0.00,Wunderground v.1.15,2013-03-11 12:39:00,
2013-03-11 08:40:00,39.1,37.2,30.15,NW,314,0.0,0.0,93,0.00,,,0.00,Wunderground v.1.15,2013-03-11 12:40:00,
2013-03-11 08:43:00,39.2,37.3,30.15,WNW,296,0.0,1.0,93,0.00,,,0.00,Wunderground v.1.15,2013-03-11 12:43:00,
2013-03-11 08:44:00,39.2,37.3,30.15,West,259,0.0,1.0,93,0.00,,,0.00,Wunderground v.1.15,2013-03-11 12:44:00,
2013-03-11 08:49:00,39.2,37.3,30.15,SE,134,1.0,1.0,93,0.00,,,0.00,Wunderground v.1.15,2013-03-11 12:49:00,
2013-03-11 08:50:00,39.2,37.3,30.15,ESE,105,1.0,4.0,93,0.00,,,0.00,Wunderground v.1.15,2013-03-11 12:50:00,
2013-03-11 08:52:00,39.2,37.3,30.14,South,173,1.0,4.0,93,0.00,,,0.00,Wunderground v.1.15,2013-03-11 12:52:00,
2013-03-11 08:55:00,39.3,37.4,30.14,South,188,1.0,4.0,93,0.00,,,0.00,Wunderground v.1.15,2013-03-11 12:55:00,
2013-03-11 08:56:00,39.3,37.4,30.14,South,189,1.0,4.0,93,0.00,,,0.00,Wunderground v.1.15,2013-03-11 12:56:00,
2013-03-11 08:57:00,39.3,37.4,30.14,SSW,196,1.0,4.0,93,0.00,,,0.00,Wunderground v.1.15,2013-03-11 12:57:00,
2013-03-11 09:00:00,39.3,37.4,30.15,SSE,153,1.0,2.0,93,0.00,,,0.00,Wunderground v.1.15,2013-03-11 13:00:00,
2013-03-11 09:01:00,39.3,37.4,30.15,SSE,165,1.0,8.0,93,0.00,,,0.00,Wunderground v.1.15,2013-03-11 13:01:00,
2013-03-11 09:02:00,39.3,37.4,30.15,South,187,1.0,8.0,93,0.00,,,0.00,Wunderground v.1.15,2013-03-11 13:02:00,
2013-03-11 09:06:00,39.4,37.5,30.14,South,182,1.0,8.0,93,0.00,,,0.00,Wunderground v.1.15,2013-03-11 13:06:00,
2013-03-11 09:07:00,39.4,37.5,30.14,SSE,155,1.0,8.0,93,0.00,,,0.00,Wunderground v.1.15,2013-03-11 13:07:00,
2013-03-11 09:09:00,39.5,37.6,30.14,SSE,152,1.0,8.0,93,0.00,,,0.00,Wunderground v.1.15,2013-03-11 13:09:00,
2013-03-11 09:11:00,39.5,37.4,30.14,SSE,155,2.0,2.0,92,0.00,,,0.00,Wunderground v.1.15,2013-03-11 13:11:00,
2013-03-11 09:14:00,39.5,37.4,30.14,SSE,159,2.0,7.0,92,0.00,,,0.00,Wunderground v.1.15,2013-03-11 13:14:00,
2013-03-11 09:15:00,39.5,37.4,30.14,SE,143,3.0,7.0,92,0.00,,,0.00,Wunderground v.1.15,2013-03-11 13:15:00,
2013-03-11 09:16:00,39.5,37.4,30.14,SSE,150,3.0,7.0,92,0.00,,,0.00,Wunderground v.1.15,2013-03-11 13:16:00,
2013-03-11 09:21:00,39.7,37.6,30.15,South,179,2.0,2.0,92,0.00,,,0.00,Wunderground v.1.15,2013-03-11 13:21:00,
2013-03-11 09:22:00,39.7,37.6,30.15,South,179,2.0,2.0,92,0.00,,,0.00,Wunderground v.1.15,2013-03-11 13:22:00,
2013-03-11 09:23:00,39.8,37.7,30.14,South,179,1.0,2.0,92,0.00,,,0.00,Wunderground v.1.15,2013-03-11 13:23:00,
2013-03-11 09:24:00,39.8,37.7,30.14,South,179,1.0,2.0,92,0.00,,,0.00,Wunderground v.1.15,2013-03-11 13:24:00,
2013-03-11 09:27:00,39.8,37.7,30.14,South,176,1.0,2.0,92,0.00,,,0.00,Wunderground v.1.15,2013-03-11 13:27:00,
2013-03-11 09:29:00,39.9,37.8,30.14,South,176,0.0,2.0,92,0.00,,,0.00,Wunderground v.1.15,2013-03-11 13:29:00,
2013-03-11 09:32:00,40.0,37.9,30.14,SW,215,0.0,8.0,92,0.00,,,0.00,Wunderground v.1.15,2013-03-11 13:32:00,
2013-03-11 09:34:00,40.0,37.9,30.14,SW,215,0.0,8.0,92,0.00,,,0.00,Wunderground v.1.15,2013-03-11 13:34:00,
2013-03-11 09:35:00,40.1,38.0,30.15,SSW,213,0.0,8.0,92,0.00,,,0.00,Wunderground v.1.15,2013-03-11 13:35:00,
2013-03-11 09:37:00,40.1,38.0,30.15,SSW,201,0.0,8.0,92,0.00,,,0.00,Wunderground v.1.15,2013-03-11 13:37:00,
2013-03-11 09:38:00,40.1,38.0,30.14,SSW,200,0.0,8.0,92,0.00,,,0.00,Wunderground v.1.15,2013-03-11 13:38:00,
2013-03-11 09:43:00,40.2,37.8,30.14,SE,126,0.0,4.0,91,0.00,,,0.00,Wunderground v.1.15,2013-03-11 13:43:00,
2013-03-11 09:44:00,40.2,37.8,30.14,SE,127,0.0,4.0,91,0.00,,,0.00,Wunderground v.1.15,2013-03-11 13:44:00,
2013-03-11 09:48:00,40.3,37.9,30.14,SSW,199,0.0,4.0,91,0.00,,,0.00,Wunderground v.1.15,2013-03-11 13:48:00,
2013-03-11 09:49:00,40.3,37.9,30.14,South,187,0.0,4.0,91,0.00,,,0.00,Wunderground v.1.15,2013-03-11 13:49:00,
2013-03-11 09:51:00,40.4,38.0,30.14,ESE,115,0.0,4.0,91,0.00,,,0.00,Wunderground v.1.15,2013-03-11 13:51:00,
2013-03-11 09:54:00,40.4,38.0,30.14,SE,144,1.0,4.0,91,0.00,,,0.00,Wunderground v.1.15,2013-03-11 13:54:00,
2013-03-11 09:55:00,40.4,38.0,30.14,SE,144,1.0,4.0,91,0.00,,,0.00,Wunderground v.1.15,2013-03-11 13:55:00,
2013-03-11 09:59:00,40.4,38.0,30.14,South,184,1.0,4.0,91,0.00,,,0.00,Wunderground v.1.15,2013-03-11 13:59:00,
2013-03-11 10:00:00,40.4,38.0,30.14,South,182,1.0,1.0,91,0.00,,,0.00,Wunderground v.1.15,2013-03-11 14:00:00,
2013-03-11 10:04:00,40.5,37.8,30.14,SE,146,1.0,12.0,90,0.00,,,0.00,Wunderground v.1.15,2013-03-11 14:04:00,
2013-03-11 10:08:00,40.6,37.9,30.14,SSE,148,1.0,12.0,90,0.00,,,0.00,Wunderground v.1.15,2013-03-11 14:08:00,
2013-03-11 10:09:00,40.6,37.9,30.14,SSE,148,1.0,12.0,90,0.00,,,0.00,Wunderground v.1.15,2013-03-11 14:09:00,
2013-03-11 10:13:00,40.7,38.0,30.14,South,178,0.0,2.0,90,0.00,,,0.00,Wunderground v.1.15,2013-03-11 14:13:00,
2013-03-11 10:16:00,40.8,38.1,30.14,SSE,161,0.0,2.0,90,0.00,,,0.00,Wunderground v.1.15,2013-03-11 14:16:00,
2013-03-11 10:17:00,40.8,38.1,30.14,South,178,0.0,2.0,90,0.00,,,0.00,Wunderground v.1.15,2013-03-11 14:17:00,
2013-03-11 10:19:00,40.9,38.2,30.14,SE,140,0.0,2.0,90,0.00,,,0.00,Wunderground v.1.15,2013-03-11 14:19:00,
2013-03-11 10:21:00,40.9,38.2,30.14,SE,140,0.0,0.0,90,0.00,,,0.00,Wunderground v.1.15,2013-03-11 14:21:00,
2013-03-11 10:22:00,40.9,38.2,30.13,SE,140,0.0,0.0,90,0.00,,,0.00,Wunderground v.1.15,2013-03-11 14:22:00,
2013-03-11 10:26:00,41.1,38.4,30.13,SE,140,0.0,0.0,90,0.00,,,0.00,Wunderground v.1.15,2013-03-11 14:26:00,
2013-03-11 10:30:00,41.2,38.2,30.13,SE,132,1.0,1.0,89,0.00,,,0.00,Wunderground v.1.15,2013-03-11 14:30:00,
2013-03-11 10:32:00,41.3,38.3,30.13,ESE,119,1.0,6.0,89,0.00,,,0.00,Wunderground v.1.15,2013-03-11 14:32:00,
2013-03-11 10:36:00,41.6,38.6,30.13,East,99,1.0,6.0,89,0.00,,,0.00,Wunderground v.1.15,2013-03-11 14:36:00,
2013-03-11 10:38:00,41.7,38.4,30.13,SE,142,1.0,6.0,88,0.00,,,0.00,Wunderground v.1.15,2013-03-11 14:38:00,
2013-03-11 10:39:00,41.7,38.4,30.13,SE,142,1.0,6.0,88,0.00,,,0.00,Wunderground v.1.15,2013-03-11 14:39:00,
2013-03-11 10:41:00,41.8,38.5,30.13,WSW,247,1.0,1.0,88,0.00,,,0.00,Wunderground v.1.15,2013-03-11 14:41:00,
2013-03-11 10:43:00,42.0,38.7,30.13,SE,130,1.0,2.0,88,0.00,,,0.00,Wunderground v.1.15,2013-03-11 14:43:00,
2013-03-11 10:46:00,42.2,38.6,30.13,SE,138,1.0,5.0,87,0.00,,,0.00,Wunderground v.1.15,2013-03-11 14:46:00,
2013-03-11 10:48:00,42.2,38.6,30.13,SE,138,1.0,5.0,87,0.00,,,0.00,Wunderground v.1.15,2013-03-11 14:48:00,
2013-03-11 10:49:00,42.3,38.7,30.13,SE,127,1.0,5.0,87,0.00,,,0.00,Wunderground v.1.15,2013-03-11 14:49:00,
2013-03-11 10:50:00,42.4,38.8,30.13,SE,124,1.0,1.0,87,0.00,,,0.00,Wunderground v.1.15,2013-03-11 14:50:00,
2013-03-11 10:54:00,42.8,39.2,30.13,SE,139,0.0,1.0,87,0.00,,,0.00,Wunderground v.1.15,2013-03-11 14:54:00,
2013-03-11 10:55:00,42.9,39.0,30.13,SE,138,0.0,1.0,86,0.00,,,0.00,Wunderground v.1.15,2013-03-11 14:55:00,
2013-03-11 10:56:00,42.9,39.0,30.13,SE,139,0.0,1.0,86,0.00,,,0.00,Wunderground v.1.15,2013-03-11 14:56:00,
2013-03-11 10:57:00,43.1,39.2,30.13,SE,138,0.0,1.0,86,0.00,,,0.00,Wunderground v.1.15,2013-03-11 14:57:00,
2013-03-11 11:00:00,43.2,39.0,30.13,SSW,192,0.0,0.0,85,0.00,,,0.00,Wunderground v.1.15,2013-03-11 15:00:00,
2013-03-11 11:02:00,43.3,39.1,30.13,SSW,200,0.0,7.0,85,0.00,,,0.00,Wunderground v.1.15,2013-03-11 15:02:00,
2013-03-11 11:03:00,43.3,39.1,30.14,SSE,161,0.0,7.0,85,0.00,,,0.00,Wunderground v.1.15,2013-03-11 15:03:00,
2013-03-11 11:04:00,43.4,38.9,30.14,SE,144,0.0,7.0,84,0.00,,,0.00,Wunderground v.1.15,2013-03-11 15:04:00,
2013-03-11 11:05:00,43.4,38.9,30.13,SE,144,1.0,7.0,84,0.00,,,0.00,Wunderground v.1.15,2013-03-11 15:05:00,
2013-03-11 11:07:00,43.5,39.0,30.13,SE,146,1.0,7.0,84,0.00,,,0.00,Wunderground v.1.15,2013-03-11 15:07:00,
2013-03-11 11:09:00,43.4,38.6,30.13,WSW,237,1.0,9.0,83,0.00,,,0.00,Wunderground v.1.15,2013-03-11 15:09:00,
2013-03-11 11:12:00,43.6,39.1,30.13,SSW,202,2.0,5.0,84,0.00,,,0.00,Wunderground v.1.15,2013-03-11 15:12:00,
2013-03-11 11:13:00,43.6,38.8,30.13,SSE,165,3.0,5.0,83,0.00,,,0.00,Wunderground v.1.15,2013-03-11 15:13:00,
2013-03-11 11:16:00,43.9,38.8,30.13,South,180,2.0,6.0,82,0.00,,,0.00,Wunderground v.1.15,2013-03-11 15:16:00,
2013-03-11 11:17:00,44.0,38.5,30.13,ESE,119,3.0,6.0,81,0.00,,,0.00,Wunderground v.1.15,2013-03-11 15:17:00,
2013-03-11 11:19:00,44.2,38.4,30.13,ESE,103,3.0,11.0,80,0.00,,,0.00,Wunderground v.1.15,2013-03-11 15:19:00,
2013-03-11 11:22:00,44.4,38.3,30.13,WSW,256,3.0,3.0,79,0.00,,,0.00,Wunderground v.1.15,2013-03-11 15:22:00,
2013-03-11 11:23:00,44.6,38.8,30.13,SW,232,2.0,3.0,80,0.00,,,0.00,Wunderground v.1.15,2013-03-11 15:23:00,
2013-03-11 11:26:00,44.7,38.6,30.13,SE,141,2.0,7.0,79,0.00,,,0.00,Wunderground v.1.15,2013-03-11 15:26:00,
2013-03-11 11:29:00,44.8,39.0,30.13,SSE,155,2.0,7.0,80,0.00,,,0.00,Wunderground v.1.15,2013-03-11 15:29:00,
2013-03-11 11:32:00,45.0,38.6,30.13,East,90,2.0,8.0,78,0.00,,,0.00,Wunderground v.1.15,2013-03-11 15:32:00,
2013-03-11 11:35:00,45.1,38.3,30.13,WSW,252,2.0,8.0,77,0.00,,,0.00,Wunderground v.1.15,2013-03-11 15:35:00,
2013-03-11 11:38:00,45.3,38.8,30.13,SSW,200,1.0,8.0,78,0.00,,,0.00,Wunderground v.1.15,2013-03-11 15:38:00,
2013-03-11 11:39:00,45.3,38.8,30.13,ESE,107,1.0,8.0,78,0.00,,,0.00,Wunderground v.1.15,2013-03-11 15:39:00,
2013-03-11 11:40:00,45.3,37.8,30.13,SE,134,1.0,1.0,75,0.00,,,0.00,Wunderground v.1.15,2013-03-11 15:40:00,
2013-03-11 11:45:00,45.5,38.4,30.13,WSW,254,1.0,3.0,76,0.00,,,0.00,Wunderground v.1.15,2013-03-11 15:45:00,
2013-03-11 11:46:00,45.6,38.5,30.13,WSW,248,1.0,3.0,76,0.00,,,0.00,Wunderground v.1.15,2013-03-11 15:46:00,
2013-03-11 11:47:00,45.7,38.6,30.13,WSW,257,1.0,3.0,76,0.00,,,0.00,Wunderground v.1.15,2013-03-11 15:47:00,
2013-03-11 11:49:00,45.8,38.3,30.13,South,171,1.0,3.0,75,0.00,,,0.00,Wunderground v.1.15,2013-03-11 15:49:00,
2013-03-11 11:51:00,46.1,38.6,30.13,South,179,0.0,0.0,75,0.00,,,0.00,Wunderground v.1.15,2013-03-11 15:51:00,
2013-03-11 11:56:00,46.5,38.3,30.13,SSE,153,0.0,2.0,73,0.00,,,0.00,Wunderground v.1.15,2013-03-11 15:56:00,
2013-03-11 12:01:00,46.6,38.8,30.13,ESE,107,1.0,12.0,74,0.00,,,0.00,Wunderground v.1.15,2013-03-11 16:01:00,
2013-03-11 12:02:00,46.6,39.1,30.13,SE,124,1.0,12.0,75,0.00,,,0.00,Wunderground v.1.15,2013-03-11 16:02:00,
2013-03-11 12:03:00,46.5,39.0,30.12,SSW,207,0.0,12.0,75,0.00,,,0.00,Wunderground v.1.15,2013-03-11 16:03:00,
2013-03-11 12:04:00,46.5,39.0,30.12,SE,135,0.0,12.0,75,0.00,,,0.00,Wunderground v.1.15,2013-03-11 16:04:00,
2013-03-11 12:08:00,46.2,39.1,30.12,SE,146,1.0,12.0,76,0.00,,,0.00,Wunderground v.1.15,2013-03-11 16:08:00,
2013-03-11 12:09:00,46.2,39.1,30.12,SSE,148,1.0,12.0,76,0.00,,,0.00,Wunderground v.1.15,2013-03-11 16:09:00,
2013-03-11 12:10:00,46.2,39.1,30.12,SE,142,1.0,1.0,76,0.00,,,0.00,Wunderground v.1.15,2013-03-11 16:10:00,
2013-03-11 12:12:00,46.3,38.8,30.12,SSE,153,1.0,1.0,75,0.00,,,0.00,Wunderground v.1.15,2013-03-11 16:12:00,
2013-03-11 12:14:00,46.4,38.9,30.12,SE,140,1.0,1.0,75,0.00,,,0.00,Wunderground v.1.15,2013-03-11 16:14:00,
2013-03-11 12:16:00,46.6,39.1,30.12,SE,142,1.0,1.0,75,0.00,,,0.00,Wunderground v.1.15,2013-03-11 16:16:00,
2013-03-11 12:18:00,46.9,39.0,30.11,SE,144,1.0,1.0,74,0.00,,,0.00,Wunderground v.1.15,2013-03-11 16:18:00,
2013-03-11 12:21:00,47.2,39.0,30.12,SE,128,1.0,5.0,73,0.00,,,0.00,Wunderground v.1.15,2013-03-11 16:21:00,
2013-03-11 12:23:00,47.1,38.9,30.11,SE,127,1.0,5.0,73,0.00,,,0.00,Wunderground v.1.15,2013-03-11 16:23:00,
2013-03-11 12:25:00,47.0,38.4,30.11,SSE,154,2.0,5.0,72,0.00,,,0.00,Wunderground v.1.15,2013-03-11 16:25:00,
2013-03-11 12:28:00,47.3,39.1,30.11,South,180,2.0,5.0,73,0.00,,,0.00,Wunderground v.1.15,2013-03-11 16:28:00,
2013-03-11 12:29:00,47.4,39.2,30.11,South,182,2.0,5.0,73,0.00,,,0.00,Wunderground v.1.15,2013-03-11 16:29:00,
2013-03-11 12:30:00,47.6,39.7,30.11,SE,134,2.0,8.0,74,0.00,,,0.00,Wunderground v.1.15,2013-03-11 16:30:00,
2013-03-11 12:33:00,47.7,39.1,30.11,SSW,207,2.0,9.0,72,0.00,,,0.00,Wunderground v.1.15,2013-03-11 16:33:00,
2013-03-11 12:35:00,47.9,39.3,30.11,SSW,207,1.0,9.0,72,0.00,,,0.00,Wunderground v.1.15,2013-03-11 16:35:00,
2013-03-11 12:38:00,48.3,39.3,30.11,SE,126,2.0,9.0,71,0.00,,,0.00,Wunderground v.1.15,2013-03-11 16:38:00,
2013-03-11 12:40:00,48.5,39.5,30.11,SE,141,2.0,2.0,71,0.00,,,0.00,Wunderground v.1.15,2013-03-11 16:40:00,
2013-03-11 12:43:00,48.8,39.8,30.11,SSW,199,1.0,2.0,71,0.00,,,0.00,Wunderground v.1.15,2013-03-11 16:43:00,
2013-03-11 12:46:00,48.9,38.8,30.11,ESE,117,2.0,7.0,68,0.00,,,0.00,Wunderground v.1.15,2013-03-11 16:46:00,
2013-03-11 12:48:00,49.0,38.9,30.11,SE,126,1.0,7.0,68,0.00,,,0.00,Wunderground v.1.15,2013-03-11 16:48:00,
2013-03-11 12:50:00,49.1,39.4,30.11,WNW,303,1.0,2.0,69,0.00,,,0.00,Wunderground v.1.15,2013-03-11 16:50:00,
2013-03-11 12:52:00,49.2,39.5,30.11,West,281,1.0,2.0,69,0.00,,,0.00,Wunderground v.1.15,2013-03-11 16:52:00,
2013-03-11 12:53:00,49.2,39.1,30.11,South,178,1.0,2.0,68,0.00,,,0.00,Wunderground v.1.15,2013-03-11 16:53:00,
2013-03-11 12:58:00,49.5,38.6,30.11,SSW,197,1.0,8.0,66,0.00,,,0.00,Wunderground v.1.15,2013-03-11 16:58:00,
2013-03-11 12:59:00,49.5,38.6,30.11,SSE,157,1.0,8.0,66,0.00,,,0.00,Wunderground v.1.15,2013-03-11 16:59:00,
2013-03-11 13:01:00,49.5,39.0,30.11,SSE,149,1.0,11.0,67,0.00,,,0.00,Wunderground v.1.15,2013-03-11 17:01:00,
2013-03-11 13:05:00,49.4,38.9,30.10,SSE,163,1.0,11.0,67,0.00,,,0.00,Wunderground v.1.15,2013-03-11 17:05:00,
2013-03-11 13:07:00,49.5,39.4,30.10,SSE,148,1.0,11.0,68,0.00,,,0.00,Wunderground v.1.15,2013-03-11 17:07:00,
2013-03-11 13:09:00,49.3,39.2,30.10,SE,126,1.0,11.0,68,0.00,,,0.00,Wunderground v.1.15,2013-03-11 17:09:00,
2013-03-11 13:10:00,49.2,39.1,30.10,South,191,1.0,1.0,68,0.00,,,0.00,Wunderground v.1.15,2013-03-11 17:10:00,
2013-03-11 13:13:00,49.0,39.3,30.10,East,90,2.0,2.0,69,0.00,,,0.00,Wunderground v.1.15,2013-03-11 17:13:00,
2013-03-11 13:17:00,49.2,39.5,30.10,ESE,113,2.0,2.0,69,0.00,,,0.00,Wunderground v.1.15,2013-03-11 17:17:00,
2013-03-11 13:18:00,49.2,39.5,30.10,SE,124,1.0,2.0,69,0.00,,,0.00,Wunderground v.1.15,2013-03-11 17:18:00,
2013-03-11 13:19:00,49.3,39.6,30.10,SE,133,1.0,2.0,69,0.00,,,0.00,Wunderground v.1.15,2013-03-11 17:19:00,
2013-03-11 13:20:00,49.2,39.1,30.10,East,96,1.0,6.0,68,0.00,,,0.00,Wunderground v.1.15,2013-03-11 17:20:00,
2013-03-11 13:23:00,49.1,38.6,30.10,SSE,151,1.0,6.0,67,0.00,,,0.00,Wunderground v.1.15,2013-03-11 17:23:00,
2013-03-11 13:25:00,49.2,39.1,30.10,SW,232,1.0,6.0,68,0.00,,,0.00,Wunderground v.1.15,2013-03-11 17:25:00,
2013-03-11 13:28:00,49.1,38.6,30.09,SSW,194,2.0,6.0,67,0.00,,,0.00,Wunderground v.1.15,2013-03-11 17:28:00,
2013-03-11 13:29:00,49.2,38.7,30.10,WSW,240,2.0,6.0,67,0.00,,,0.00,Wunderground v.1.15,2013-03-11 17:29:00,
2013-03-11 13:30:00,49.2,39.1,30.10,WSW,239,2.0,2.0,68,0.00,,,0.00,Wunderground v.1.15,2013-03-11 17:30:00,
2013-03-11 13:33:00,49.5,39.7,30.10,SE,145,1.0,11.0,69,0.00,,,0.00,Wunderground v.1.15,2013-03-11 17:33:00,
2013-03-11 13:36:00,49.9,39.8,30.10,SE,129,1.0,11.0,68,0.00,,,0.00,Wunderground v.1.15,2013-03-11 17:36:00,
2013-03-11 13:39:00,50.0,39.5,30.10,SSW,192,0.0,11.0,67,0.00,,,0.00,Wunderground v.1.15,2013-03-11 17:39:00,
2013-03-11 13:41:00,50.1,39.9,30.09,South,184,0.0,0.0,68,0.00,,,0.00,Wunderground v.1.15,2013-03-11 17:41:00,
2013-03-11 13:44:00,50.4,40.2,30.09,South,178,0.0,0.0,68,0.00,,,0.00,Wunderground v.1.15,2013-03-11 17:44:00,
2013-03-11 13:47:00,50.5,39.6,30.09,ESE,117,0.0,2.0,66,0.00,,,0.00,Wunderground v.1.15,2013-03-11 17:47:00,
2013-03-11 13:49:00,50.5,39.6,30.09,ESE,103,1.0,8.0,66,0.00,,,0.00,Wunderground v.1.15,2013-03-11 17:49:00,
2013-03-11 13:50:00,50.5,39.2,30.08,SE,134,1.0,1.0,65,0.00,,,0.00,Wunderground v.1.15,2013-03-11 17:50:00,
2013-03-11 13:52:00,50.7,39.4,30.09,ESE,104,1.0,5.0,65,0.00,,,0.00,Wunderground v.1.15,2013-03-11 17:52:00,
2013-03-11 13:54:00,50.7,39.0,30.09,SE,126,2.0,7.0,64,0.00,,,0.00,Wunderground v.1.15,2013-03-11 17:54:00,
2013-03-11 13:59:00,51.2,40.2,30.09,SE,144,2.0,7.0,66,0.00,,,0.00,Wunderground v.1.15,2013-03-11 17:59:00,
2013-03-11 14:00:00,51.2,39.8,30.08,SE,136,1.0,1.0,65,0.00,,,0.00,Wunderground v.1.15,2013-03-11 18:00:00,
2013-03-11 14:01:00,51.3,39.9,30.08,SSE,154,1.0,11.0,65,0.00,,,0.00,Wunderground v.1.15,2013-03-11 18:01:00,
2013-03-11 14:04:00,51.5,40.1,30.08,SE,133,1.0,11.0,65,0.00,,,0.00,Wunderground v.1.15,2013-03-11 18:04:00,
2013-03-11 14:06:00,51.5,39.7,30.08,South,179,1.0,11.0,64,0.00,,,0.00,Wunderground v.1.15,2013-03-11 18:06:00,
2013-03-11 14:07:00,51.5,39.3,30.08,SE,140,1.0,11.0,63,0.00,,,0.00,Wunderground v.1.15,2013-03-11 18:07:00,
2013-03-11 14:09:00,51.7,39.9,30.08,SE,134,1.0,11.0,64,0.00,,,0.00,Wunderground v.1.15,2013-03-11 18:09:00,
2013-03-11 14:11:00,51.8,40.0,30.08,WSW,254,1.0,3.0,64,0.00,,,0.00,Wunderground v.1.15,2013-03-11 18:11:00,
2013-03-11 14:13:00,51.7,39.9,30.07,SSE,150,2.0,5.0,64,0.00,,,0.00,Wunderground v.1.15,2013-03-11 18:13:00,
2013-03-11 14:16:00,51.7,40.3,30.08,ESE,121,2.0,5.0,65,0.00,,,0.00,Wunderground v.1.15,2013-03-11 18:16:00,
2013-03-11 14:19:00,51.5,40.1,30.08,SSE,165,2.0,5.0,65,0.00,,,0.00,Wunderground v.1.15,2013-03-11 18:19:00,
2013-03-11 14:20:00,51.5,40.5,30.08,SE,138,2.0,2.0,66,0.00,,,0.00,Wunderground v.1.15,2013-03-11 18:20:00,
2013-03-11 14:22:00,51.3,39.9,30.07,SE,143,2.0,6.0,65,0.00,,,0.00,Wunderground v.1.15,2013-03-11 18:22:00,
2013-03-11 14:26:00,51.2,40.2,30.06,SSE,164,2.0,6.0,66,0.00,,,0.00,Wunderground v.1.15,2013-03-11 18:26:00,
2013-03-11 14:27:00,51.2,40.2,30.06,SSE,165,2.0,6.0,66,0.00,,,0.00,Wunderground v.1.15,2013-03-11 18:27:00,
2013-03-11 14:28:00,51.3,40.3,30.06,SSE,161,1.0,6.0,66,0.00,,,0.00,Wunderground v.1.15,2013-03-11 18:28:00,
2013-03-11 14:31:00,51.4,40.4,30.06,SSW,211,1.0,3.0,66,0.00,,,0.00,Wunderground v.1.15,2013-03-11 18:31:00,
2013-03-11 14:34:00,51.5,40.5,30.06,South,175,1.0,12.0,66,0.00,,,0.00,Wunderground v.1.15,2013-03-11 18:34:00,
2013-03-11 14:36:00,51.7,41.1,30.06,SE,141,1.0,12.0,67,0.00,,,0.00,Wunderground v.1.15,2013-03-11 18:36:00,
2013-03-11 14:41:00,51.8,41.6,30.06,SE,140,1.0,2.0,68,0.00,,,0.00,Wunderground v.1.15,2013-03-11 18:41:00,
2013-03-11 14:42:00,51.9,41.3,30.06,SSE,167,1.0,2.0,67,0.00,,,0.00,Wunderground v.1.15,2013-03-11 18:42:00,
2013-03-11 14:43:00,51.8,40.4,30.06,SE,132,1.0,2.0,65,0.00,,,0.00,Wunderground v.1.15,2013-03-11 18:43:00,
2013-03-11 14:47:00,51.8,40.8,30.06,WSW,238,1.0,3.0,66,0.00,,,0.00,Wunderground v.1.15,2013-03-11 18:47:00,
2013-03-11 14:50:00,51.9,40.5,30.05,SSE,161,1.0,1.0,65,0.00,,,0.00,Wunderground v.1.15,2013-03-11 18:50:00,
2013-03-11 14:52:00,51.9,40.5,30.06,WSW,256,1.0,4.0,65,0.00,,,0.00,Wunderground v.1.15,2013-03-11 18:52:00,
2013-03-11 14:53:00,51.9,40.5,30.05,SSE,168,1.0,4.0,65,0.00,,,0.00,Wunderground v.1.15,2013-03-11 18:53:00,
2013-03-11 14:58:00,52.0,41.0,30.05,SSE,151,0.0,4.0,66,0.00,,,0.00,Wunderground v.1.15,2013-03-11 18:58:00,
2013-03-11 15:00:00,52.1,41.1,30.05,SSE,161,1.0,1.0,66,0.00,,,0.00,Wunderground v.1.15,2013-03-11 19:00:00,
2013-03-11 15:01:00,52.1,41.1,30.05,SE,134,1.0,8.0,66,0.00,,,0.00,Wunderground v.1.15,2013-03-11 19:01:00,
2013-03-11 15:02:00,52.1,41.5,30.05,East,100,1.0,8.0,67,0.00,,,0.00,Wunderground v.1.15,2013-03-11 19:02:00,
2013-03-11 15:06:00,52.2,41.6,30.05,SSE,166,2.0,8.0,67,0.00,,,0.00,Wunderground v.1.15,2013-03-11 19:06:00,
2013-03-11 15:09:00,52.2,42.0,30.05,SSE,158,3.0,8.0,68,0.00,,,0.00,Wunderground v.1.15,2013-03-11 19:09:00,
2013-03-11 15:14:00,52.2,42.0,30.05,SSW,198,2.0,6.0,68,0.00,,,0.00,Wunderground v.1.15,2013-03-11 19:14:00,
2013-03-11 15:15:00,52.2,42.0,30.05,SE,144,2.0,6.0,68,0.00,,,0.00,Wunderground v.1.15,2013-03-11 19:15:00,
2013-03-11 15:17:00,52.3,42.0,30.05,ESE,118,2.0,6.0,68,0.00,,,0.00,Wunderground v.1.15,2013-03-11 19:17:00,
2013-03-11 15:20:00,52.4,42.5,30.05,SSW,198,1.0,1.0,69,0.00,,,0.00,Wunderground v.1.15,2013-03-11 19:20:00,
2013-03-11 15:21:00,52.5,42.6,30.05,SSW,205,1.0,1.0,69,0.00,,,0.00,Wunderground v.1.15,2013-03-11 19:21:00,
2013-03-11 15:24:00,52.7,42.8,30.05,SE,125,1.0,8.0,69,0.00,,,0.00,Wunderground v.1.15,2013-03-11 19:24:00,
2013-03-11 15:25:00,52.7,42.8,30.05,SSW,209,1.0,8.0,69,0.00,,,0.00,Wunderground v.1.15,2013-03-11 19:25:00,
2013-03-11 15:27:00,52.7,43.2,30.05,SSE,167,1.0,10.0,70,0.00,,,0.00,Wunderground v.1.15,2013-03-11 19:27:00,
2013-03-11 15:29:00,52.6,43.1,30.05,South,169,2.0,10.0,70,0.00,,,0.00,Wunderground v.1.15,2013-03-11 19:29:00,
2013-03-11 15:32:00,52.5,43.4,30.04,SSW,207,2.0,13.0,71,0.00,,,0.00,Wunderground v.1.15,2013-03-11 19:32:00,
2013-03-11 15:33:00,52.5,43.7,30.04,West,267,1.0,13.0,72,0.00,,,0.00,Wunderground v.1.15,2013-03-11 19:33:00,
2013-03-11 15:38:00,52.7,44.3,30.05,West,266,0.0,13.0,73,0.00,,,0.00,Wunderground v.1.15,2013-03-11 19:38:00,
2013-03-11 15:39:00,52.7,44.3,30.05,WSW,251,1.0,13.0,73,0.00,,,0.00,Wunderground v.1.15,2013-03-11 19:39:00,
2013-03-11 15:40:00,52.7,44.3,30.05,West,264,1.0,2.0,73,0.00,,,0.00,Wunderground v.1.15,2013-03-11 19:40:00,
2013-03-11 15:44:00,52.7,44.6,30.05,South,169,1.0,3.0,74,0.00,,,0.00,Wunderground v.1.15,2013-03-11 19:44:00,
2013-03-11 15:47:00,52.8,45.1,30.04,WSW,248,1.0,6.0,75,0.00,,,0.00,Wunderground v.1.15,2013-03-11 19:47:00,
2013-03-11 15:49:00,52.7,45.0,30.04,SW,226,1.0,6.0,75,0.00,,,0.00,Wunderground v.1.15,2013-03-11 19:49:00,
2013-03-11 15:50:00,52.7,45.0,30.03,South,172,1.0,1.0,75,0.00,,,0.00,Wunderground v.1.15,2013-03-11 19:50:00,
2013-03-11 15:52:00,52.7,45.0,30.03,SSE,151,1.0,5.0,75,0.00,,,0.00,Wunderground v.1.15,2013-03-11 19:52:00,
2013-03-11 15:53:00,52.7,45.3,30.02,SE,146,1.0,5.0,76,0.00,,,0.00,Wunderground v.1.15,2013-03-11 19:53:00,
2013-03-11 15:57:00,52.7,45.3,30.02,South,171,2.0,5.0,76,0.00,,,0.00,Wunderground v.1.15,2013-03-11 19:57:00,
2013-03-11 15:59:00,52.7,45.7,30.02,SE,130,1.0,7.0,77,0.00,,,0.00,Wunderground v.1.15,2013-03-11 19:59:00,
2013-03-11 16:03:00,52.6,45.9,30.02,SSW,194,2.0,14.0,78,0.00,,,0.00,Wunderground v.1.15,2013-03-11 20:03:00,
2013-03-11 16:04:00,52.6,45.9,30.02,SSW,198,2.0,14.0,78,0.00,,,0.00,Wunderground v.1.15,2013-03-11 20:04:00,
2013-03-11 16:05:00,52.6,45.9,30.02,SE,133,2.0,14.0,78,0.00,,,0.00,Wunderground v.1.15,2013-03-11 20:05:00,
2013-03-11 16:07:00,52.5,46.2,30.02,South,171,3.0,14.0,79,0.00,,,0.00,Wunderground v.1.15,2013-03-11 20:07:00,
2013-03-11 16:09:00,52.4,46.4,30.02,SE,144,2.0,14.0,80,0.00,,,0.00,Wunderground v.1.15,2013-03-11 20:09:00,
2013-03-11 16:10:00,52.4,46.4,30.02,West,280,2.0,2.0,80,0.00,,,0.00,Wunderground v.1.15,2013-03-11 20:10:00,
2013-03-11 16:15:00,52.2,46.5,30.03,SSE,165,2.0,2.0,81,0.00,,,0.00,Wunderground v.1.15,2013-03-11 20:15:00,
2013-03-11 16:17:00,52.1,46.4,30.03,SSE,149,1.0,3.0,81,0.00,,,0.00,Wunderground v.1.15,2013-03-11 20:17:00,
2013-03-11 16:18:00,52.1,46.8,30.03,South,180,1.0,3.0,82,0.00,,,0.00,Wunderground v.1.15,2013-03-11 20:18:00,
2013-03-11 16:21:00,51.9,46.6,30.03,SSE,160,1.0,5.0,82,0.00,,,0.00,Wunderground v.1.15,2013-03-11 20:21:00,
2013-03-11 16:25:00,51.7,46.7,30.02,ESE,110,1.0,8.0,83,0.00,,,0.00,Wunderground v.1.15,2013-03-11 20:25:00,
2013-03-11 16:28:00,51.4,46.4,30.02,SW,219,2.0,8.0,83,0.00,,,0.00,Wunderground v.1.15,2013-03-11 20:28:00,
2013-03-11 16:30:00,51.4,46.4,30.02,ESE,114,2.0,4.0,83,0.00,,,0.00,Wunderground v.1.15,2013-03-11 20:30:00,
2013-03-11 16:32:00,51.2,46.2,30.02,South,175,2.0,10.0,83,0.00,,,0.00,Wunderground v.1.15,2013-03-11 20:32:00,
2013-03-11 16:33:00,51.1,46.4,30.02,SW,214,2.0,10.0,84,0.00,,,0.00,Wunderground v.1.15,2013-03-11 20:33:00,
2013-03-11 16:37:00,51.0,46.3,30.02,SE,137,2.0,10.0,84,0.00,,,0.00,Wunderground v.1.15,2013-03-11 20:37:00,
2013-03-11 16:38:00,51.0,46.3,30.02,ESE,103,1.0,10.0,84,0.00,,,0.00,Wunderground v.1.15,2013-03-11 20:38:00,
2013-03-11 16:39:00,51.0,46.3,30.02,East,91,1.0,10.0,84,0.00,,,0.00,Wunderground v.1.15,2013-03-11 20:39:00,
2013-03-11 16:41:00,50.9,46.2,30.02,SSE,157,1.0,2.0,84,0.00,,,0.00,Wunderground v.1.15,2013-03-11 20:41:00,
2013-03-11 16:42:00,50.9,46.2,30.01,SE,144,1.0,2.0,84,0.00,,,0.00,Wunderground v.1.15,2013-03-11 20:42:00,
2013-03-11 16:44:00,50.8,46.1,30.01,South,169,1.0,2.0,84,0.00,,,0.00,Wunderground v.1.15,2013-03-11 20:44:00,
2013-03-11 16:45:00,50.8,46.1,30.01,ESE,116,1.0,11.0,84,0.00,,,0.00,Wunderground v.1.15,2013-03-11 20:45:00,
2013-03-11 16:50:00,50.8,46.1,30.01,SE,146,1.0,1.0,84,0.00,,,0.00,Wunderground v.1.15,2013-03-11 20:50:00,
2013-03-11 16:51:00,50.8,46.1,30.01,ESE,109,1.0,1.0,84,0.00,,,0.00,Wunderground v.1.15,2013-03-11 20:51:00,
2013-03-11 16:53:00,50.8,46.1,30.01,SE,143,1.0,5.0,84,0.00,,,0.00,Wunderground v.1.15,2013-03-11 20:53:00,
2013-03-11 16:58:00,50.8,46.1,30.01,SSW,192,1.0,5.0,84,0.00,,,0.00,Wunderground v.1.15,2013-03-11 20:58:00,
2013-03-11 16:59:00,50.8,46.1,30.01,SE,143,2.0,5.0,84,0.00,,,0.00,Wunderground v.1.15,2013-03-11 20:59:00,
2013-03-11 17:04:00,50.9,46.2,30.00,SE,144,1.0,11.0,84,0.00,,,0.00,Wunderground v.1.15,2013-03-11 21:04:00,
2013-03-11 17:05:00,51.0,46.3,30.00,ESE,102,1.0,11.0,84,0.00,,,0.00,Wunderground v.1.15,2013-03-11 21:05:00,
2013-03-11 17:10:00,51.0,46.6,30.00,SE,139,1.0,5.0,85,0.00,,,0.00,Wunderground v.1.15,2013-03-11 21:10:00,
2013-03-11 17:12:00,51.1,46.7,30.00,SE,132,2.0,5.0,85,0.00,,,0.00,Wunderground v.1.15,2013-03-11 21:12:00,
2013-03-11 17:14:00,51.1,46.7,30.00,SE,126,2.0,5.0,85,0.00,,,0.00,Wunderground v.1.15,2013-03-11 21:14:00,
2013-03-11 17:15:00,51.1,46.7,30.00,SE,134,1.0,5.0,85,0.00,,,0.00,Wunderground v.1.15,2013-03-11 21:15:00,
2013-03-11 17:18:00,51.2,46.8,30.00,SSE,153,2.0,5.0,85,0.00,,,0.00,Wunderground v.1.15,2013-03-11 21:18:00,
2013-03-11 17:20:00,51.2,46.5,29.99,ESE,111,3.0,9.0,84,0.00,,,0.00,Wunderground v.1.15,2013-03-11 21:20:00,
2013-03-11 17:23:00,51.2,46.8,29.99,SE,142,3.0,9.0,85,0.00,,,0.00,Wunderground v.1.15,2013-03-11 21:23:00,
2013-03-11 17:24:00,51.1,46.7,29.99,SE,142,3.0,9.0,85,0.00,,,0.00,Wunderground v.1.15,2013-03-11 21:24:00,
2013-03-11 17:27:00,51.1,46.7,29.99,SSE,160,3.0,9.0,85,0.00,,,0.00,Wunderground v.1.15,2013-03-11 21:27:00,
2013-03-11 17:29:00,51.1,46.7,29.99,East,94,3.0,9.0,85,0.00,,,0.00,Wunderground v.1.15,2013-03-11 21:29:00,
2013-03-11 17:30:00,51.1,46.7,29.99,ESE,105,3.0,8.0,85,0.00,,,0.00,Wunderground v.1.15,2013-03-11 21:30:00,
2013-03-11 17:34:00,51.0,46.6,29.98,ENE,67,3.0,11.0,85,0.00,,,0.00,Wunderground v.1.15,2013-03-11 21:34:00,
2013-03-11 17:36:00,51.0,46.6,29.99,SSW,196,4.0,11.0,85,0.00,,,0.00,Wunderground v.1.15,2013-03-11 21:36:00,
2013-03-11 17:38:00,51.0,46.6,29.99,ESE,103,4.0,11.0,85,0.00,,,0.00,Wunderground v.1.15,2013-03-11 21:38:00,
2013-03-11 17:40:00,51.0,46.6,30.00,ENE,78,3.0,3.0,85,0.00,,,0.00,Wunderground v.1.15,2013-03-11 21:40:00,
2013-03-11 17:42:00,51.0,46.6,30.00,ESE,105,3.0,3.0,85,0.00,,,0.00,Wunderground v.1.15,2013-03-11 21:42:00,
2013-03-11 17:43:00,51.0,46.6,30.00,ESE,121,2.0,3.0,85,0.00,,,0.00,Wunderground v.1.15,2013-03-11 21:43:00,
2013-03-11 17:48:00,51.0,46.6,30.00,SE,132,2.0,9.0,85,0.00,,,0.00,Wunderground v.1.15,2013-03-11 21:48:00,
2013-03-11 17:49:00,51.0,46.6,30.00,SE,132,2.0,9.0,85,0.00,,,0.00,Wunderground v.1.15,2013-03-11 21:49:00,
2013-03-11 17:51:00,51.0,46.6,30.00,ESE,122,2.0,5.0,85,0.00,,,0.00,Wunderground v.1.15,2013-03-11 21:51:00,
2013-03-11 17:53:00,51.0,46.6,30.01,ESE,102,2.0,6.0,85,0.00,,,0.00,Wunderground v.1.15,2013-03-11 21:53:00,
2013-03-11 17:57:00,51.0,46.6,30.00,ESE,117,2.0,6.0,85,0.00,,,0.00,Wunderground v.1.15,2013-03-11 21:57:00,
2013-03-11 17:58:00,51.0,46.6,30.00,ESE,103,3.0,6.0,85,0.00,,,0.00,Wunderground v.1.15,2013-03-11 21:58:00,
2013-03-11 17:59:00,51.0,46.6,30.00,SE,137,3.0,6.0,85,0.00,,,0.00,Wunderground v.1.15,2013-03-11 21:59:00,
2013-03-11 18:00:00,51.0,46.6,30.00,SE,140,3.0,3.0,85,0.00,,,0.00,Wunderground v.1.15,2013-03-11 22:00:00,
2013-03-11 18:04:00,51.0,46.6,30.01,SE,138,2.0,13.0,85,0.00,,,0.00,Wunderground v.1.15,2013-03-11 22:04:00,
2013-03-11 18:05:00,51.0,46.6,30.01,SE,125,2.0,13.0,85,0.00,,,0.00,Wunderground v.1.15,2013-03-11 22:05:00,
2013-03-11 18:06:00,51.0,46.6,30.01,SE,124,2.0,13.0,85,0.00,,,0.00,Wunderground v.1.15,2013-03-11 22:06:00,
2013-03-11 18:10:00,51.0,46.6,30.01,East,96,1.0,1.0,85,0.00,,,0.00,Wunderground v.1.15,2013-03-11 22:10:00,
2013-03-11 18:11:00,51.0,46.6,30.01,ESE,115,1.0,1.0,85,0.00,,,0.00,Wunderground v.1.15,2013-03-11 22:11:00,
2013-03-11 18:13:00,51.0,46.6,30.01,SE,146,1.0,5.0,85,0.00,,,0.00,Wunderground v.1.15,2013-03-11 22:13:00,
2013-03-11 18:15:00,51.0,46.6,30.00,ESE,122,2.0,5.0,85,0.00,,,0.00,Wunderground v.1.15,2013-03-11 22:15:00,
2013-03-11 18:18:00,51.0,46.6,30.01,SE,125,2.0,5.0,85,0.00,,,0.00,Wunderground v.1.15,2013-03-11 22:18:00,
2013-03-11 18:19:00,51.0,46.6,30.01,ESE,110,2.0,5.0,85,0.00,,,0.00,Wunderground v.1.15,2013-03-11 22:19:00,
2013-03-11 18:23:00,51.0,46.6,30.01,ESE,116,2.0,7.0,85,0.00,,,0.00,Wunderground v.1.15,2013-03-11 22:23:00,
2013-03-11 18:24:00,51.0,46.6,30.01,SE,126,2.0,7.0,85,0.00,,,0.00,Wunderground v.1.15,2013-03-11 22:24:00,
2013-03-11 18:27:00,51.0,46.6,30.01,SE,130,3.0,7.0,85,0.00,,,0.00,Wunderground v.1.15,2013-03-11 22:27:00,
2013-03-11 18:29:00,51.0,46.6,30.00,ESE,119,3.0,7.0,85,0.00,,,0.00,Wunderground v.1.15,2013-03-11 22:29:00,
2013-03-11 18:31:00,51.1,46.7,30.01,ESE,107,2.0,5.0,85,0.00,,,0.00,Wunderground v.1.15,2013-03-11 22:31:00,
2013-03-11 18:33:00,51.0,46.6,30.01,SE,140,2.0,14.0,85,0.00,,,0.00,Wunderground v.1.15,2013-03-11 22:33:00,
2013-03-11 18:36:00,51.1,46.7,30.01,ESE,105,2.0,14.0,85,0.00,,,0.00,Wunderground v.1.15,2013-03-11 22:36:00,
2013-03-11 18:39:00,51.1,46.7,30.01,SE,141,2.0,14.0,85,0.00,,,0.00,Wunderground v.1.15,2013-03-11 22:39:00,
2013-03-11 18:41:00,51.1,46.7,30.01,East,93,3.0,4.0,85,0.00,,,0.00,Wunderground v.1.15,2013-03-11 22:41:00,
2013-03-11 18:43:00,51.1,46.7,30.00,SE,140,2.0,4.0,85,0.00,,,0.00,Wunderground v.1.15,2013-03-11 22:43:00,
2013-03-11 18:44:00,51.1,46.7,30.00,ESE,113,2.0,4.0,85,0.00,,,0.00,Wunderground v.1.15,2013-03-11 22:44:00,
2013-03-11 18:47:00,51.1,46.7,30.00,ESE,111,2.0,5.0,85,0.00,,,0.00,Wunderground v.1.15,2013-03-11 22:47:00,
2013-03-11 18:50:00,50.9,46.6,30.00,ESE,122,2.0,2.0,85,0.00,,,0.00,Wunderground v.1.15,2013-03-11 22:50:00,
2013-03-11 18:52:00,50.7,46.4,29.99,ESE,102,2.0,7.0,85,0.00,,,0.00,Wunderground v.1.15,2013-03-11 22:52:00,
2013-03-11 18:53:00,50.6,46.3,30.00,SE,137,3.0,8.0,85,0.00,,,0.00,Wunderground v.1.15,2013-03-11 22:53:00,
2013-03-11 18:54:00,50.5,46.2,30.00,SE,146,3.0,8.0,85,0.00,,,0.00,Wunderground v.1.15,2013-03-11 22:54:00,
2013-03-11 18:57:00,50.1,45.8,30.00,SE,127,4.0,8.0,85,0.00,,,0.00,Wunderground v.1.15,2013-03-11 22:57:00,
2013-03-11 19:01:00,49.7,45.7,29.99,ESE,117,5.0,9.0,86,0.00,,,0.00,Wunderground v.1.15,2013-03-11 23:01:00,
2013-03-11 19:03:00,49.6,45.6,30.00,ESE,107,5.0,9.0,86,0.00,,,0.00,Wunderground v.1.15,2013-03-11 23:03:00,
2013-03-11 19:07:00,49.4,45.7,29.99,East,87,6.0,9.0,87,0.00,,,0.00,Wunderground v.1.15,2013-03-11 23:07:00,
2013-03-11 19:08:00,49.4,45.7,29.98,East,98,6.0,9.0,87,0.00,,,0.00,Wunderground v.1.15,2013-03-11 23:08:00,
2013-03-11 19:09:00,49.4,45.7,29.98,SSE,158,6.0,9.0,87,0.00,,,0.00,Wunderground v.1.15,2013-03-11 23:09:00,
2013-03-11 19:12:00,49.3,45.6,29.98,SE,126,6.0,6.0,87,0.00,,,0.00,Wunderground v.1.15,2013-03-11 23:12:00,
2013-03-11 19:14:00,49.2,45.5,29.98,ESE,109,6.0,7.0,87,0.00,,,0.00,Wunderground v.1.15,2013-03-11 23:14:00,
2013-03-11 19:15:00,49.2,45.5,29.98,East,100,6.0,7.0,87,0.00,,,0.00,Wunderground v.1.15,2013-03-11 23:15:00,
2013-03-11 19:16:00,49.2,45.5,29.98,SE,128,5.0,7.0,87,0.00,,,0.00,Wunderground v.1.15,2013-03-11 23:16:00,
2013-03-11 19:18:00,49.2,45.5,29.98,ESE,113,5.0,7.0,87,0.00,,,0.00,Wunderground v.1.15,2013-03-11 23:18:00,
2013-03-11 19:20:00,49.2,45.5,29.98,ESE,110,4.0,6.0,87,0.00,,,0.00,Wunderground v.1.15,2013-03-11 23:20:00,
2013-03-11 19:25:00,49.0,45.3,29.98,SE,132,5.0,11.0,87,0.00,,,0.00,Wunderground v.1.15,2013-03-11 23:25:00,
2013-03-11 19:26:00,49.0,45.3,29.97,ESE,105,5.0,11.0,87,0.00,,,0.00,Wunderground v.1.15,2013-03-11 23:26:00,
2013-03-11 19:30:00,48.9,45.5,29.98,ESE,114,5.0,5.0,88,0.00,,,0.00,Wunderground v.1.15,2013-03-11 23:30:00,
2013-03-11 19:32:00,48.9,45.5,29.98,ESE,105,4.0,14.0,88,0.00,,,0.00,Wunderground v.1.15,2013-03-11 23:32:00,
2013-03-11 19:34:00,48.9,45.5,29.98,ESE,115,3.0,14.0,88,0.00,,,0.00,Wunderground v.1.15,2013-03-11 23:34:00,
2013-03-11 19:37:00,48.9,45.5,29.98,ESE,109,3.0,14.0,88,0.00,,,0.00,Wunderground v.1.15,2013-03-11 23:37:00,
2013-03-11 19:38:00,48.9,45.5,29.98,ESE,123,3.0,14.0,88,0.00,,,0.00,Wunderground v.1.15,2013-03-11 23:38:00,
2013-03-11 19:39:00,48.9,45.5,29.98,East,94,3.0,14.0,88,0.00,,,0.00,Wunderground v.1.15,2013-03-11 23:39:00,
2013-03-11 19:41:00,48.8,45.4,29.98,ESE,102,4.0,6.0,88,0.00,,,0.00,Wunderground v.1.15,2013-03-11 23:41:00,
2013-03-11 19:42:00,48.8,45.4,29.98,SE,130,4.0,6.0,88,0.00,,,0.00,Wunderground v.1.15,2013-03-11 23:42:00,
2013-03-11 19:46:00,48.8,45.4,29.98,ESE,107,5.0,6.0,88,0.00,,,0.00,Wunderground v.1.15,2013-03-11 23:46:00,
2013-03-11 19:48:00,48.9,45.5,29.98,ESE,107,4.0,6.0,88,0.00,,,0.00,Wunderground v.1.15,2013-03-11 23:48:00,
2013-03-11 19:49:00,48.9,45.5,29.98,ESE,103,4.0,8.0,88,0.00,,,0.00,Wunderground v.1.15,2013-03-11 23:49:00,
2013-03-11 19:50:00,48.9,45.8,29.98,ENE,67,4.0,6.0,89,0.00,,,0.00,Wunderground v.1.15,2013-03-11 23:50:00,
2013-03-11 19:52:00,48.9,45.8,29.98,East,94,4.0,6.0,89,0.00,,,0.00,Wunderground v.1.15,2013-03-11 23:52:00,
2013-03-11 19:55:00,49.0,45.9,29.98,East,96,4.0,6.0,89,0.00,,,0.00,Wunderground v.1.15,2013-03-11 23:55:00,
2013-03-11 19:57:00,49.1,46.0,29.98,SE,134,4.0,7.0,89,0.00,,,0.00,Wunderground v.1.15,2013-03-11 23:57:00,
2013-03-11 20:00:00,49.1,46.0,29.98,SE,146,4.0,4.0,89,0.00,,,0.00,Wunderground v.1.15,2013-03-12 00:00:00,
2013-03-11 20:01:00,49.1,46.0,29.98,ESE,121,4.0,5.0,89,0.00,,,0.00,Wunderground v.1.15,2013-03-12 00:01:00,
2013-03-11 20:05:00,49.1,46.0,29.98,ESE,116,4.0,13.0,89,0.00,,,0.00,Wunderground v.1.15,2013-03-12 00:05:00,
2013-03-11 20:07:00,49.2,46.1,29.98,SE,126,4.0,13.0,89,0.00,,,0.00,Wunderground v.1.15,2013-03-12 00:07:00,
2013-03-11 20:10:00,49.2,46.1,29.98,East,100,5.0,5.0,89,0.00,,,0.00,Wunderground v.1.15,2013-03-12 00:10:00,
2013-03-11 20:13:00,49.2,46.1,29.99,ESE,123,4.0,5.0,89,0.00,,,0.00,Wunderground v.1.15,2013-03-12 00:13:00,
2013-03-11 20:16:00,49.2,46.1,29.99,ESE,105,4.0,9.0,89,0.00,,,0.00,Wunderground v.1.15,2013-03-12 00:16:00,
2013-03-11 20:17:00,49.2,46.1,29.99,SE,136,4.0,9.0,89,0.00,,,0.00,Wunderground v.1.15,2013-03-12 00:17:00,
2013-03-11 20:20:00,49.3,46.2,29.99,ESE,110,3.0,4.0,89,0.00,,,0.00,Wunderground v.1.15,2013-03-12 00:20:00,
2013-03-11 20:22:00,49.3,46.2,30.00,SE,126,3.0,8.0,89,0.00,,,0.00,Wunderground v.1.15,2013-03-12 00:22:00,
2013-03-11 20:23:00,49.3,46.2,30.00,ESE,121,3.0,9.0,89,0.00,,,0.00,Wunderground v.1.15,2013-03-12 00:23:00,
2013-03-11 20:26:00,49.4,46.6,30.00,ESE,113,3.0,9.0,90,0.00,,,0.00,Wunderground v.1.15,2013-03-12 00:26:00,
2013-03-11 20:29:00,49.4,46.6,30.00,ESE,109,3.0,9.0,90,0.00,,,0.00,Wunderground v.1.15,2013-03-12 00:29:00,
2013-03-11 20:31:00,49.5,46.7,30.00,ESE,105,4.0,13.0,90,0.00,,,0.00,Wunderground v.1.15,2013-03-12 00:31:00,
2013-03-11 20:34:00,49.6,46.8,30.00,SE,126,4.0,13.0,90,0.00,,,0.00,Wunderground v.1.15,2013-03-12 00:34:00,
2013-03-11 20:37:00,49.6,46.8,30.00,ESE,103,4.0,13.0,90,0.00,,,0.00,Wunderground v.1.15,2013-03-12 00:37:00,
2013-03-11 20:38:00,49.6,46.8,30.00,ESE,123,5.0,13.0,90,0.00,,,0.00,Wunderground v.1.15,2013-03-12 00:38:00,
2013-03-11 20:43:00,49.6,46.8,29.99,SSE,152,4.0,7.0,90,0.00,,,0.00,Wunderground v.1.15,2013-03-12 00:43:00,
2013-03-11 20:44:00,49.6,46.8,29.99,ESE,122,4.0,7.0,90,0.00,,,0.00,Wunderground v.1.15,2013-03-12 00:44:00,
2013-03-11 20:47:00,49.6,46.8,29.98,ESE,113,5.0,7.0,90,0.00,,,0.00,Wunderground v.1.15,2013-03-12 00:47:00,
2013-03-11 20:50:00,49.4,46.6,29.98,SSE,161,4.0,4.0,90,0.00,,,0.00,Wunderground v.1.15,2013-03-12 00:50:00,
2013-03-11 20:52:00,49.4,46.6,29.99,ESE,118,4.0,5.0,90,0.00,,,0.00,Wunderground v.1.15,2013-03-12 00:52:00,
2013-03-11 20:53:00,49.4,46.6,29.99,SE,134,3.0,5.0,90,0.00,,,0.00,Wunderground v.1.15,2013-03-12 00:53:00,
2013-03-11 20:58:00,49.2,46.4,29.99,ESE,119,4.0,6.0,90,0.00,,,0.00,Wunderground v.1.15,2013-03-12 00:58:00,
2013-03-11 21:00:00,49.2,46.4,29.99,SE,126,3.0,8.0,90,0.00,,,0.00,Wunderground v.1.15,2013-03-12 01:00:00,
2013-03-11 21:02:00,49.2,46.4,29.98,ESE,115,3.0,14.0,90,0.00,,,0.00,Wunderground v.1.15,2013-03-12 01:02:00,
2013-03-11 21:04:00,49.1,46.3,29.98,ESE,115,3.0,14.0,90,0.00,,,0.00,Wunderground v.1.15,2013-03-12 01:04:00,
2013-03-11 21:06:00,49.1,46.6,29.98,ESE,115,3.0,14.0,91,0.00,,,0.00,Wunderground v.1.15,2013-03-12 01:06:00,
2013-03-11 21:09:00,49.1,46.6,29.98,SSE,161,4.0,14.0,91,0.00,,,0.00,Wunderground v.1.15,2013-03-12 01:09:00,
2013-03-11 21:10:00,49.1,46.6,29.98,East,98,4.0,5.0,91,0.00,,,0.00,Wunderground v.1.15,2013-03-12 01:10:00,
2013-03-11 21:11:00,49.1,46.6,29.98,East,96,4.0,5.0,91,0.00,,,0.00,Wunderground v.1.15,2013-03-12 01:11:00,
2013-03-11 21:15:00,49.1,46.6,29.99,ESE,114,5.0,5.0,91,0.00,,,0.00,Wunderground v.1.15,2013-03-12 01:15:00,
2013-03-11 21:16:00,49.1,46.6,29.99,East,79,5.0,5.0,91,0.00,,,0.00,Wunderground v.1.15,2013-03-12 01:16:00,
2013-03-11 21:18:00,49.1,46.6,29.98,ESE,122,4.0,5.0,91,0.00,,,0.00,Wunderground v.1.15,2013-03-12 01:18:00,
2013-03-11 21:20:00,49.0,46.5,29.98,SE,125,4.0,4.0,91,0.00,,,0.00,Wunderground v.1.15,2013-03-12 01:20:00,
2013-03-11 21:21:00,49.0,46.5,29.98,East,99,4.0,7.0,91,0.00,,,0.00,Wunderground v.1.15,2013-03-12 01:21:00,
2013-03-11 21:24:00,49.0,46.5,29.99,SE,125,4.0,7.0,91,0.00,,,0.00,Wunderground v.1.15,2013-03-12 01:24:00,
2013-03-11 21:27:00,49.0,46.5,29.99,East,90,4.0,7.0,91,0.00,,,0.00,Wunderground v.1.15,2013-03-12 01:27:00,
2013-03-11 21:29:00,49.0,46.5,29.99,SE,128,4.0,7.0,91,0.00,,,0.00,Wunderground v.1.15,2013-03-12 01:29:00,
2013-03-11 21:32:00,49.0,46.5,29.99,ESE,108,3.0,13.0,91,0.00,,,0.00,Wunderground v.1.15,2013-03-12 01:32:00,
2013-03-11 21:33:00,49.0,46.5,29.98,SE,124,4.0,13.0,91,0.00,,,0.00,Wunderground v.1.15,2013-03-12 01:33:00,
2013-03-11 21:34:00,49.0,46.5,29.98,SE,124,4.0,13.0,91,0.00,,,0.00,Wunderground v.1.15,2013-03-12 01:34:00,
2013-03-11 21:39:00,49.0,46.5,29.98,SE,130,4.0,13.0,91,0.00,,,0.00,Wunderground v.1.15,2013-03-12 01:39:00,
2013-03-11 21:41:00,49.0,46.5,29.98,ESE,107,5.0,6.0,91,0.00,,,0.00,Wunderground v.1.15,2013-03-12 01:41:00,
2013-03-11 21:42:00,49.0,46.5,29.98,ESE,105,5.0,8.0,91,0.00,,,0.00,Wunderground v.1.15,2013-03-12 01:42:00,
2013-03-11 21:44:00,49.0,46.5,29.98,ESE,111,5.0,8.0,91,0.00,,,0.00,Wunderground v.1.15,2013-03-12 01:44:00,
2013-03-11 21:48:00,49.0,46.5,29.98,SE,125,6.0,19.0,91,0.00,,,0.00,Wunderground v.1.15,2013-03-12 01:48:00,
2013-03-11 21:49:00,49.0,46.5,29.98,SSE,148,6.0,19.0,91,0.00,,,0.00,Wunderground v.1.15,2013-03-12 01:49:00,
2013-03-11 21:52:00,49.0,46.5,29.97,East,99,5.0,6.0,91,0.00,,,0.00,Wunderground v.1.15,2013-03-12 01:52:00,
2013-03-11 21:53:00,48.9,46.4,29.97,ESE,117,5.0,6.0,91,0.00,,,0.00,Wunderground v.1.15,2013-03-12 01:53:00,
2013-03-11 21:54:00,48.9,46.4,29.97,ESE,105,5.0,6.0,91,0.00,,,0.00,Wunderground v.1.15,2013-03-12 01:54:00,
2013-03-11 21:55:00,48.9,46.4,29.97,ESE,105,5.0,6.0,91,0.00,,,0.00,Wunderground v.1.15,2013-03-12 01:55:00,
2013-03-11 21:58:00,48.8,46.3,29.97,ESE,111,5.0,6.0,91,0.00,,,0.00,Wunderground v.1.15,2013-03-12 01:58:00,
2013-03-11 22:01:00,48.8,46.3,29.97,ESE,105,5.0,13.0,91,0.00,,,0.00,Wunderground v.1.15,2013-03-12 02:01:00,
2013-03-11 22:02:00,48.8,46.3,29.97,ESE,105,5.0,13.0,91,0.00,,,0.00,Wunderground v.1.15,2013-03-12 02:02:00,
2013-03-11 22:05:00,48.7,46.2,29.97,ESE,119,5.0,13.0,91,0.00,,,0.00,Wunderground v.1.15,2013-03-12 02:05:00,
2013-03-11 22:07:00,48.7,46.2,29.97,ESE,110,5.0,13.0,91,0.00,,,0.00,Wunderground v.1.15,2013-03-12 02:07:00,
2013-03-11 22:08:00,48.7,46.2,29.97,ESE,119,4.0,13.0,91,0.00,,,0.00,Wunderground v.1.15,2013-03-12 02:08:00,
2013-03-11 22:10:00,48.7,46.2,29.97,ESE,115,4.0,5.0,91,0.00,,,0.00,Wunderground v.1.15,2013-03-12 02:10:00,
2013-03-11 22:12:00,48.8,46.3,29.97,ESE,113,5.0,5.0,91,0.00,,,0.00,Wunderground v.1.15,2013-03-12 02:12:00,
2013-03-11 22:14:00,48.8,46.3,29.97,SE,146,5.0,5.0,91,0.00,,,0.00,Wunderground v.1.15,2013-03-12 02:14:00,
2013-03-11 22:16:00,48.8,46.3,29.97,East,94,5.0,5.0,91,0.00,,,0.00,Wunderground v.1.15,2013-03-12 02:16:00,
2013-03-11 22:17:00,48.8,46.3,29.96,ESE,108,5.0,6.0,91,0.00,,,0.00,Wunderground v.1.15,2013-03-12 02:17:00,
2013-03-11 22:19:00,48.8,46.3,29.97,ESE,106,5.0,6.0,91,0.00,,,0.00,Wunderground v.1.15,2013-03-12 02:19:00,
2013-03-11 22:20:00,48.8,46.3,29.97,East,96,5.0,5.0,91,0.00,,,0.00,Wunderground v.1.15,2013-03-12 02:20:00,
2013-03-11 22:22:00,48.8,46.3,29.97,SE,134,4.0,5.0,91,0.00,,,0.00,Wunderground v.1.15,2013-03-12 02:22:00,
2013-03-11 22:23:00,48.8,46.3,29.97,East,96,5.0,5.0,91,0.00,,,0.00,Wunderground v.1.15,2013-03-12 02:23:00,
2013-03-11 22:25:00,48.8,46.3,29.97,ENE,65,5.0,6.0,91,0.00,,,0.00,Wunderground v.1.15,2013-03-12 02:25:00,
2013-03-11 22:30:00,48.8,46.3,29.97,ENE,78,4.0,4.0,91,0.00,,,0.00,Wunderground v.1.15,2013-03-12 02:30:00,
2013-03-11 22:32:00,48.8,46.3,29.97,ESE,123,4.0,19.0,91,0.00,,,0.00,Wunderground v.1.15,2013-03-12 02:32:00,
2013-03-11 22:34:00,48.9,46.4,29.97,East,100,4.0,19.0,91,0.00,,,0.00,Wunderground v.1.15,2013-03-12 02:34:00,
2013-03-11 22:36:00,49.0,46.5,29.96,ESE,105,4.0,19.0,91,0.00,,,0.00,Wunderground v.1.15,2013-03-12 02:36:00,
2013-03-11 22:37:00,49.0,46.5,29.95,ESE,118,5.0,19.0,91,0.00,,,0.00,Wunderground v.1.15,2013-03-12 02:37:00,
2013-03-11 22:40:00,49.0,46.5,29.96,ENE,71,4.0,4.0,91,0.00,,,0.00,Wunderground v.1.15,2013-03-12 02:40:00,
2013-03-11 22:45:00,49.0,46.5,29.95,SSE,149,4.0,6.0,91,0.00,,,0.00,Wunderground v.1.15,2013-03-12 02:45:00,
2013-03-11 22:46:00,48.9,46.4,29.96,ESE,121,4.0,6.0,91,0.00,,,0.00,Wunderground v.1.15,2013-03-12 02:46:00,
2013-03-11 22:50:00,48.8,46.6,29.95,SE,128,5.0,5.0,92,0.00,,,0.00,Wunderground v.1.15,2013-03-12 02:50:00,
2013-03-11 22:51:00,48.8,46.6,29.95,ESE,116,5.0,5.0,92,0.00,,,0.00,Wunderground v.1.15,2013-03-12 02:51:00,
2013-03-11 22:53:00,48.8,46.6,29.95,SE,134,5.0,8.0,92,0.00,,,0.00,Wunderground v.1.15,2013-03-12 02:53:00,
2013-03-11 22:55:00,48.7,46.5,29.95,ESE,119,5.0,8.0,92,0.00,,,0.00,Wunderground v.1.15,2013-03-12 02:55:00,
2013-03-11 22:57:00,48.7,46.5,29.95,SE,125,5.0,8.0,92,0.00,,,0.00,Wunderground v.1.15,2013-03-12 02:57:00,
2013-03-11 22:58:00,48.8,46.6,29.95,SE,128,5.0,8.0,92,0.00,,,0.00,Wunderground v.1.15,2013-03-12 02:58:00,
2013-03-11 23:01:00,48.8,46.6,29.95,ESE,110,5.0,8.0,92,0.00,,,0.00,Wunderground v.1.15,2013-03-12 03:01:00,
2013-03-11 23:03:00,48.8,46.6,29.95,SE,143,5.0,13.0,92,0.00,,,0.00,Wunderground v.1.15,2013-03-12 03:03:00,
2013-03-11 23:04:00,48.8,46.6,29.95,ESE,107,5.0,13.0,92,0.00,,,0.00,Wunderground v.1.15,2013-03-12 03:04:00,
2013-03-11 23:06:00,48.9,46.7,29.95,ESE,119,5.0,13.0,92,0.00,,,0.00,Wunderground v.1.15,2013-03-12 03:06:00,
2013-03-11 23:07:00,48.9,46.7,29.94,SE,137,5.0,13.0,92,0.00,,,0.00,Wunderground v.1.15,2013-03-12 03:07:00,
2013-03-11 23:09:00,49.0,46.8,29.94,South,171,5.0,13.0,92,0.00,,,0.00,Wunderground v.1.15,2013-03-12 03:09:00,
2013-03-11 23:12:00,49.1,46.6,29.93,East,99,4.0,6.0,91,0.00,,,0.00,Wunderground v.1.15,2013-03-12 03:12:00,
2013-03-11 23:13:00,49.1,46.6,29.93,ESE,116,4.0,14.0,91,0.00,,,0.00,Wunderground v.1.15,2013-03-12 03:13:00,
2013-03-11 23:15:00,49.2,46.7,29.93,SE,124,5.0,14.0,91,0.00,,,0.00,Wunderground v.1.15,2013-03-12 03:15:00,
2013-03-11 23:18:00,49.2,46.7,29.93,SE,130,7.0,14.0,91,0.00,,,0.00,Wunderground v.1.15,2013-03-12 03:18:00,
2013-03-11 23:21:00,49.2,46.7,29.93,ESE,117,7.0,15.0,91,0.00,,,0.00,Wunderground v.1.15,2013-03-12 03:21:00,
2013-03-11 23:24:00,49.2,46.7,29.93,ESE,113,7.0,15.0,91,0.00,,,0.00,Wunderground v.1.15,2013-03-12 03:24:00,
2013-03-11 23:27:00,49.1,46.6,29.93,SE,146,7.0,15.0,91,0.00,,,0.00,Wunderground v.1.15,2013-03-12 03:27:00,
2013-03-11 23:28:00,49.1,46.6,29.93,ESE,111,6.0,15.0,91,0.00,,,0.00,Wunderground v.1.15,2013-03-12 03:28:00,
2013-03-11 23:29:00,49.1,46.6,29.93,SSE,152,6.0,15.0,91,0.00,,,0.00,Wunderground v.1.15,2013-03-12 03:29:00,
2013-03-11 23:31:00,49.1,46.6,29.93,SE,129,6.0,17.0,91,0.00,,,0.00,Wunderground v.1.15,2013-03-12 03:31:00,
2013-03-11 23:33:00,49.2,46.7,29.93,SE,127,6.0,17.0,91,0.00,,,0.00,Wunderground v.1.15,2013-03-12 03:33:00,
2013-03-11 23:35:00,49.2,46.7,29.93,SE,136,6.0,17.0,91,0.00,,,0.00,Wunderground v.1.15,2013-03-12 03:35:00,
2013-03-11 23:36:00,49.2,46.7,29.93,ESE,103,6.0,17.0,91,0.00,,,0.00,Wunderground v.1.15,2013-03-12 03:36:00,
2013-03-11 23:42:00,49.3,46.8,29.92,ESE,118,6.0,7.0,91,0.00,,,0.00,Wunderground v.1.15,2013-03-12 03:42:00,
2013-03-11 23:43:00,49.3,46.8,29.92,SSE,150,6.0,7.0,91,0.00,,,0.00,Wunderground v.1.15,2013-03-12 03:43:00,
2013-03-11 23:44:00,49.3,46.8,29.92,South,169,6.0,7.0,91,0.00,,,0.00,Wunderground v.1.15,2013-03-12 03:44:00,
2013-03-11 23:48:00,49.3,46.8,29.92,SE,133,6.0,11.0,91,0.00,,,0.00,Wunderground v.1.15,2013-03-12 03:48:00,
2013-03-11 23:50:00,49.3,46.8,29.92,SSE,153,6.0,6.0,91,0.00,,,0.00,Wunderground v.1.15,2013-03-12 03:50:00,
2013-03-11 23:53:00,49.4,46.9,29.91,SSE,154,6.0,15.0,91,0.00,,,0.00,Wunderground v.1.15,2013-03-12 03:53:00,
2013-03-11 23:56:00,49.3,46.8,29.91,ESE,121,6.0,15.0,91,0.00,,,0.00,Wunderground v.1.15,2013-03-12 03:56:00,
2013-03-11 23:57:00,49.3,46.8,29.91,ESE,115,6.0,15.0,91,0.00,,,0.00,Wunderground v.1.15,2013-03-12 03:57:00,
2013-03-11 23:59:00,49.2,46.7,29.91,SSE,167,6.0,15.0,91,0.00,,,0.00,Wunderground v.1.15,2013-03-12 03:59:00,